M I D A S
Marine Information and Data Acquisition System
Tripno 1423 of the Zeeleeuw from 2008-02-11 09:12:56 to 2008-02-11 16:50:57
Back to CruiseResearch ActivitiesStationsMapUnderway DataData graphs

EquipmentUnitsComment
TimeDGPSUTC
LatitudeDGPSDM.mWGS84
LongitudeDGPSDM.mWGS84
TemperatureSBE03/SBE38deg celciusITS90
ConductivitySBE21S/mITS90
SalinitySBE21 Practical Salinity Units
ChlorophylAChelsea fluorimeterg/lCalibrated in Aceton
Missing or incorrect values are displayed as -999
Sea surface data collected by the RV Zeeleeuw from 2008-02-11 09:13:46 to 2008-02-11 20:30:56
                                                                                    Next 1000 lines
Time Latitude Longitude Temperature Conductivity Salinity ChlorophylA
2008-02-11 09:13:55 51°13.663 2°55.953 -999 0.011645 0.061229 -1.801521
2008-02-11 09:14:00 51°13.664 2°55.951 -999 0.012056 0.063195 -1.801521
2008-02-11 09:14:06 51°13.664 2°55.949 -999 0.011439 0.060248 -1.801521
2008-02-11 09:14:11 51°13.665 2°55.946 -999 0.011645 0.061229 -1.801521
2008-02-11 09:14:16 51°13.666 2°55.944 -999 0.011748 0.061721 -1.801521
2008-02-11 09:14:20 51°13.667 2°55.941 -999 0.011748 0.061721 -1.801521
2008-02-11 09:14:25 51°13.668 2°55.937 -999 0.011645 0.061231 -1.801521
2008-02-11 09:14:31 51°13.67 2°55.933 -999 0.011542 0.060738 -1.801521
2008-02-11 09:14:36 51°13.671 2°55.929 -999 0.011748 0.061721 -1.801521
2008-02-11 09:14:41 51°13.673 2°55.925 -999 0.01185 0.062215 -1.801521
2008-02-11 09:14:46 51°13.674 2°55.92 -999 0.01185 0.062217 -1.801521
2008-02-11 09:14:50 51°13.675 2°55.916 -999 0.01185 0.062217 -1.801521
2008-02-11 09:14:56 51°13.678 2°55.911 -999 0.01185 0.062217 -1.801521
2008-02-11 09:15:01 51°13.679 2°55.905 -999 0.01185 0.06222 -1.801521
2008-02-11 09:15:06 51°13.681 2°55.901 -999 0.01185 0.062221 -1.801521
2008-02-11 09:15:11 51°13.683 2°55.895 -999 0.011748 0.061731 -1.801521
2008-02-11 09:15:16 51°13.684 2°55.89 -999 0.01185 0.062222 -1.801521
2008-02-11 09:15:21 51°13.685 2°55.885 -999 0.01185 0.062222 -1.801521
2008-02-11 09:15:26 51°13.686 2°55.88 -999 0.011748 0.061732 -1.801521
2008-02-11 09:15:31 51°13.687 2°55.874 -999 0.01185 0.062224 -1.801521
2008-02-11 09:15:35 51°13.688 2°55.87 -999 0.01185 0.062226 -1.801521
2008-02-11 09:15:41 51°13.689 2°55.863 -999 0.01185 0.062226 -1.801521
2008-02-11 09:15:46 51°13.69 2°55.858 -999 0.011748 0.061734 -1.801521
2008-02-11 09:15:51 51°13.691 2°55.852 -999 0.011748 0.061734 -1.801521
2008-02-11 09:15:55 51°13.691 2°55.848 -999 0.011748 0.061735 -1.801521
2008-02-11 09:16:00 51°13.692 2°55.842 -999 0.011748 0.061736 -1.801521
2008-02-11 09:16:06 51°13.693 2°55.836 -999 0.011748 0.061736 -1.801521
2008-02-11 09:16:11 51°13.694 2°55.83 -999 0.011748 0.061737 -1.801521
2008-02-11 09:16:15 51°13.694 2°55.826 -999 0.011748 0.061738 -1.801521
2008-02-11 09:16:20 51°13.695 2°55.82 -999 0.011748 0.061738 -1.801521
2008-02-11 09:16:25 51°13.696 2°55.815 -999 0.01185 0.062231 -1.801521
2008-02-11 09:16:31 51°13.696 2°55.808 -999 0.011748 0.06174 -1.801521
2008-02-11 09:16:36 51°13.697 2°55.803 -999 0.011748 0.06174 -1.801521
2008-02-11 09:16:40 51°13.697 2°55.799 -999 0.01185 0.062232 -1.801521
2008-02-11 09:16:45 51°13.697 2°55.795 -999 0.01185 0.062234 -1.801521
2008-02-11 09:16:51 51°13.698 2°55.789 -999 0.01185 0.062234 -1.801521
2008-02-11 09:16:55 51°13.698 2°55.785 -999 0.01185 0.062235 -1.801521
2008-02-11 09:17:01 51°13.698 2°55.78 -999 0.011748 0.061743 -1.801521
2008-02-11 09:17:05 51°13.698 2°55.777 -999 0.01185 0.062236 -1.801521
2008-02-11 09:17:10 51°13.698 2°55.773 -999 0.01185 0.062236 -1.801521
2008-02-11 09:17:16 51°13.699 2°55.768 -999 0.01185 0.062237 -1.801521
2008-02-11 09:17:21 51°13.699 2°55.764 -999 0.01185 0.062237 -1.801521
2008-02-11 09:17:26 51°13.699 2°55.761 -999 0.012056 0.063223 -1.801521
2008-02-11 09:17:30 51°13.699 2°55.759 -999 0.011953 0.062733 -1.766697
2008-02-11 09:17:35 51°13.699 2°55.758 -999 0.011953 0.062735 -1.801521
2008-02-11 09:17:41 51°13.7 2°55.756 -999 0.012056 0.063229 -1.801521
2008-02-11 09:17:46 51°13.701 2°55.755 -999 0.012056 0.06323 -1.801521
2008-02-11 09:17:51 51°13.701 2°55.755 -999 0.012056 0.06323 -1.801521
2008-02-11 09:17:55 51°13.702 2°55.756 -999 0.012056 0.063232 -1.801521
2008-02-11 09:18:01 51°13.703 2°55.756 -999 0.012056 0.063233 -1.801521
2008-02-11 09:18:06 51°13.703 2°55.756 -999 0.011748 0.061755 -1.801521
2008-02-11 09:18:11 51°13.704 2°55.756 -999 0.011542 0.06077 -1.801521
2008-02-11 09:18:16 51°13.704 2°55.755 -999 0.011542 0.060769 -1.801521
2008-02-11 09:18:20 51°13.704 2°55.754 -999 0.011542 0.060769 -1.801521
2008-02-11 09:18:26 51°13.703 2°55.752 -999 0.011336 0.059786 -1.801521
2008-02-11 09:18:31 51°13.703 2°55.75 -999 0.011645 0.06126 -1.801521
2008-02-11 09:18:36 51°13.702 2°55.748 -999 0.01185 0.062246 -1.801521
2008-02-11 09:18:40 51°13.701 2°55.746 -999 0.01185 0.062249 -1.801521
2008-02-11 09:18:45 51°13.701 2°55.744 -999 0.011748 0.061757 -1.801521
2008-02-11 09:18:51 51°13.699 2°55.742 -999 0.011748 0.061757 -1.801521
2008-02-11 09:18:56 51°13.699 2°55.741 -999 0.01185 0.062249 -1.801521
2008-02-11 09:19:00 51°13.698 2°55.74 -999 0.012159 0.063729 -1.801521
2008-02-11 09:19:05 51°13.699 2°55.74 -999 0.012262 0.064226 -1.801521
2008-02-11 09:19:08 51°13.7 2°55.739 -999 0.012056 0.06325 -1.801521
2008-02-11 09:19:08 51°13.7 2°55.739 -999 0.012056 0.063251 -1.801521
2008-02-11 09:19:08 51°13.7 2°55.739 -999 0.011953 0.062758 -1.801521
2008-02-11 09:19:08 51°13.7 2°55.739 -999 0.012262 0.064235 -1.801521
2008-02-11 09:19:08 51°13.7 2°55.739 -999 0.011953 0.062758 -1.801521
2008-02-11 09:19:08 51°13.7 2°55.739 -999 0.012365 0.064731 -1.801521
2008-02-11 09:19:08 51°13.7 2°55.739 -999 0.012262 0.064239 -1.801521
2008-02-11 09:19:08 51°13.7 2°55.739 -999 0.011953 0.062758 -1.801521
2008-02-11 09:19:08 51°13.7 2°55.739 -999 0.012674 0.06621 -1.801521
2008-02-11 09:19:08 51°13.7 2°55.739 -999 0.012571 0.065712 -1.801521
2008-02-11 09:19:08 51°13.7 2°55.739 -999 0.012056 0.063251 -1.801521
2008-02-11 09:19:08 51°13.7 2°55.739 -999 0.012674 0.06621 -1.801521
2008-02-11 09:20:11 51°13.7 2°55.739 -999 0.011748 0.061771 -1.801521
2008-02-11 09:20:14 51°13.7 2°55.739 -999 0.011542 0.060785 -1.801521
2008-02-11 09:20:20 51°13.7 2°55.739 -999 0.011542 0.060785 -1.801521
2008-02-11 09:20:25 51°13.773 2°55.693 -999 0.011336 0.0598 -1.801521
2008-02-11 09:20:31 51°13.784 2°55.685 -999 0.011233 0.059305 -1.801521
2008-02-11 09:20:35 51°13.791 2°55.68 -999 0.011233 0.059304 -1.801521
2008-02-11 09:20:40 51°13.795 2°55.673 -999 0.011336 0.059795 -1.801521
2008-02-11 09:20:46 51°13.803 2°55.664 -999 0.011233 0.059305 -1.801521
2008-02-11 09:20:51 51°13.806 2°55.657 -999 0.011233 0.059305 -1.801521
2008-02-11 09:20:55 51°13.811 2°55.653 -999 0.011233 0.059306 -1.801521
2008-02-11 09:21:00 51°13.818 2°55.647 -999 0.011233 0.059307 -1.801521
2008-02-11 09:21:05 51°13.826 2°55.642 -999 0.011336 0.059799 -1.801521
2008-02-11 09:21:11 51°13.836 2°55.637 -999 0.011336 0.0598 -1.801521
2008-02-11 09:21:15 51°13.842 2°55.633 -999 0.011439 0.060293 -1.801521
2008-02-11 09:21:20 51°13.849 2°55.629 -999 0.011439 0.060293 -1.801521
2008-02-11 09:21:25 51°13.856 2°55.624 -999 0.011439 0.060294 -1.801521
2008-02-11 09:21:30 51°13.863 2°55.619 -999 0.011439 0.060296 -1.801521
2008-02-11 09:21:35 51°13.87 2°55.614 -999 0.011439 0.060298 -1.801521
2008-02-11 09:21:40 51°13.876 2°55.609 -999 0.011542 0.060791 -1.801521
2008-02-11 09:21:45 51°13.883 2°55.605 -999 0.011542 0.060793 -1.801521
2008-02-11 09:21:50 51°13.889 2°55.599 -999 0.011542 0.060793 -1.801521
2008-02-11 09:21:55 51°13.896 2°55.595 -999 0.011645 0.061286 -1.801521
2008-02-11 09:22:00 51°13.902 2°55.589 -999 0.011542 0.060796 -1.801521
2008-02-11 09:22:06 51°13.91 2°55.583 -999 0.011542 0.060797 -1.801521
2008-02-11 09:22:10 51°13.915 2°55.579 -999 0.011542 0.060797 -1.801521
2008-02-11 09:22:15 51°13.922 2°55.574 -999 0.011439 0.060306 -1.801521
2008-02-11 09:22:21 51°13.93 2°55.568 -999 0.011439 0.060306 -1.801521
2008-02-11 09:22:26 51°13.937 2°55.563 -999 0.011439 0.060306 -1.801521
2008-02-11 09:22:31 51°13.943 2°55.558 -999 0.011439 0.060306 -1.801521
2008-02-11 09:22:35 51°13.949 2°55.554 -999 0.011439 0.060306 -1.801521
2008-02-11 09:22:40 51°13.956 2°55.55 -999 0.011542 0.060798 -1.801521
2008-02-11 09:22:46 51°13.965 2°55.544 -999 0.011542 0.0608 -1.801521
2008-02-11 09:22:50 51°13.97 2°55.54 -999 0.011542 0.0608 -1.801521
2008-02-11 09:22:55 51°13.977 2°55.535 -999 0.011439 0.060309 -1.801521
2008-02-11 09:23:00 51°13.985 2°55.53 -999 0.011439 0.060309 -1.801521
2008-02-11 09:23:06 51°13.993 2°55.524 -999 0.011439 0.060309 -1.801521
2008-02-11 09:23:11 51°14 2°55.519 -999 0.011336 0.059818 -1.801521
2008-02-11 09:23:15 51°14.006 2°55.515 -999 0.011336 0.059819 -1.801521
2008-02-11 09:23:20 51°14.013 2°55.51 -999 0.011336 0.059819 -1.801521
2008-02-11 09:23:25 51°14.02 2°55.506 -999 0.011542 0.060802 -1.801521
2008-02-11 09:23:31 51°14.029 2°55.5 -999 0.011439 0.060312 -1.801521
2008-02-11 09:23:36 51°14.036 2°55.494 -999 0.011439 0.060314 -1.801521
2008-02-11 09:23:40 51°14.042 2°55.49 -999 0.011336 0.059823 -1.801521
2008-02-11 09:23:45 51°14.049 2°55.485 -999 0.011336 0.059824 -1.801521
2008-02-11 09:23:50 51°14.055 2°55.479 -999 0.011336 0.059824 -1.801521
2008-02-11 09:23:55 51°14.062 2°55.474 -999 0.011439 0.060315 -1.801521
2008-02-11 09:24:00 51°14.069 2°55.469 -999 0.011439 0.060316 -1.801521
2008-02-11 09:24:06 51°14.078 2°55.462 -999 0.011439 0.060317 -1.801521
2008-02-11 09:24:11 51°14.085 2°55.457 -999 0.011439 0.060318 -1.801521
2008-02-11 09:24:16 51°14.092 2°55.451 -999 0.011542 0.060812 -1.801521
2008-02-11 09:24:21 51°14.099 2°55.446 -999 0.011542 0.060812 -1.801521
2008-02-11 09:24:26 51°14.106 2°55.44 -999 0.011542 0.060814 -1.801521
2008-02-11 09:24:31 51°14.114 2°55.434 -999 0.011542 0.060814 -1.801521
2008-02-11 09:24:35 51°14.119 2°55.428 -999 0.011542 0.060816 -1.801521
2008-02-11 09:24:41 51°14.128 2°55.421 -999 0.011542 0.060816 -1.766697
2008-02-11 09:24:46 51°14.136 2°55.414 -999 0.011542 0.060817 -1.801521
2008-02-11 09:24:51 51°14.143 2°55.407 -999 0.011542 0.060817 -1.801521
2008-02-11 09:24:55 51°14.149 2°55.401 -999 0.011439 0.060326 -1.801521
2008-02-11 09:25:01 51°14.158 2°55.392 -999 0.011439 0.060326 -1.801521
2008-02-11 09:25:06 51°14.166 2°55.385 -999 0.011439 0.060326 -1.801521
2008-02-11 09:25:11 51°14.173 2°55.377 -999 0.011439 0.060326 -1.801521
2008-02-11 09:25:15 51°14.179 2°55.37 -999 0.011542 0.060819 -1.801521
2008-02-11 09:25:20 51°14.186 2°55.362 -999 0.011542 0.060819 -1.801521
2008-02-11 09:25:25 51°14.193 2°55.354 -999 0.011542 0.060821 -1.801521
2008-02-11 09:25:31 51°14.202 2°55.343 -999 0.011542 0.060822 -1.801521
2008-02-11 09:25:36 51°14.208 2°55.334 -999 0.011542 0.060823 -1.801521
2008-02-11 09:25:41 51°14.216 2°55.325 -999 0.011542 0.060824 -1.801521
2008-02-11 09:25:45 51°14.221 2°55.318 -999 0.011542 0.060826 -1.801521
2008-02-11 09:25:51 51°14.229 2°55.306 -999 0.011542 0.060826 -1.801521
2008-02-11 09:25:55 51°14.234 2°55.298 -999 0.011439 0.060334 -1.801521
2008-02-11 09:26:00 51°14.24 2°55.288 -999 0.011439 0.060334 -1.801521
2008-02-11 09:26:05 51°14.247 2°55.277 -999 0.011542 0.060826 -1.801521
2008-02-11 09:26:10 51°14.253 2°55.267 -999 0.011542 0.060827 -1.801521
2008-02-11 09:26:15 51°14.259 2°55.256 -999 0.011439 0.060336 -1.801521
2008-02-11 09:26:20 51°14.265 2°55.246 -999 0.011439 0.060336 -1.801521
2008-02-11 09:26:26 51°14.272 2°55.232 -999 0.011439 0.060335 -1.801521
2008-02-11 09:26:30 51°14.277 2°55.224 -999 0.011439 0.060335 -1.801521
2008-02-11 09:26:35 51°14.283 2°55.213 -999 0.011439 0.060337 -1.801521
2008-02-11 09:26:40 51°14.289 2°55.202 -999 0.011439 0.060337 -1.801521
2008-02-11 09:26:46 51°14.296 2°55.188 -999 0.011439 0.060337 -1.801521
2008-02-11 09:26:50 51°14.3 2°55.179 -999 0.011439 0.060337 -1.801521
2008-02-11 09:26:55 51°14.306 2°55.168 -999 0.011439 0.060338 -1.801521
2008-02-11 09:27:00 51°14.312 2°55.156 -999 0.011645 0.061323 -1.801521
2008-02-11 09:27:05 51°14.318 2°55.144 -999 0.011542 0.060834 -1.801521
2008-02-11 09:27:10 51°14.324 2°55.132 -999 0.011542 0.060836 -1.801521
2008-02-11 09:27:15 51°14.331 2°55.119 -999 0.011439 0.060344 -1.801521
2008-02-11 09:27:20 51°14.337 2°55.106 -999 0.011439 0.060344 -1.801521
2008-02-11 09:27:26 51°14.345 2°55.089 -999 0.011645 0.061328 -1.801521
2008-02-11 09:27:31 51°14.352 2°55.074 -999 0.011645 0.06133 -1.801521
2008-02-11 09:27:35 51°14.357 2°55.062 -999 0.011542 0.06084 -1.801521
2008-02-11 09:27:40 51°14.364 2°55.045 -999 0.011645 0.061334 -1.801521
2008-02-11 09:27:46 51°14.371 2°55.024 -999 0.011542 0.060843 -1.801521
2008-02-11 09:27:51 51°14.377 2°55.006 -999 0.011542 0.060843 -1.801521
2008-02-11 09:27:55 51°14.382 2°54.99 -999 0.011542 0.060845 -1.801521
2008-02-11 09:28:00 51°14.387 2°54.971 -999 0.011439 0.060352 -1.801521
2008-02-11 09:28:05 51°14.391 2°54.95 -999 0.011439 0.060349 -1.801521
2008-02-11 09:28:11 51°14.396 2°54.925 -999 0.011336 0.059857 -1.801521
2008-02-11 09:28:15 51°14.399 2°54.907 -999 0.01113 0.05887 -1.801521
2008-02-11 09:28:20 51°14.403 2°54.885 -999 0.01113 0.05887 -1.801521
2008-02-11 09:28:25 51°14.406 2°54.863 -999 0.011233 0.059362 -1.801521
2008-02-11 09:28:30 51°14.409 2°54.84 -999 0.011233 0.059363 -1.766697
2008-02-11 09:28:35 51°14.412 2°54.817 -999 0.011439 0.06035 -1.801521
2008-02-11 09:28:40 51°14.414 2°54.793 -999 0.011439 0.060354 -1.801521
2008-02-11 09:28:45 51°14.416 2°54.769 -999 0.011233 0.05937 -1.801521
2008-02-11 09:28:50 51°14.418 2°54.745 -999 0.011233 0.05937 -1.801521
2008-02-11 09:28:55 51°14.419 2°54.721 -999 0.011233 0.05937 -1.801521
2008-02-11 09:29:00 51°14.42 2°54.697 -999 0.011233 0.059367 -1.801521
2008-02-11 09:29:05 51°14.42 2°54.672 -999 0.011027 0.058379 -1.801521
2008-02-11 09:29:10 51°14.421 2°54.647 -999 0.011027 0.058378 -1.801521
2008-02-11 09:29:15 51°14.42 2°54.622 -999 0.01113 0.058871 -1.801521
2008-02-11 09:29:20 51°14.42 2°54.597 -999 0.01113 0.058871 -1.801521
2008-02-11 09:29:26 51°14.419 2°54.567 -999 0.01113 0.058877 -1.801521
2008-02-11 09:29:31 51°14.417 2°54.541 -999 0.011233 0.05937 -1.801521
2008-02-11 09:29:35 51°14.416 2°54.521 -999 0.011233 0.05937 -1.801521
2008-02-11 09:29:40 51°14.413 2°54.496 -999 0.011439 0.06036 -1.801521
2008-02-11 09:29:46 51°14.409 2°54.466 -999 0.011439 0.060367 -1.801521
2008-02-11 09:29:51 51°14.405 2°54.442 -999 0.011439 0.060367 -1.801521
2008-02-11 09:29:55 51°14.401 2°54.422 -999 0.011645 0.061357 -1.801521
2008-02-11 09:30:00 51°14.395 2°54.399 -999 0.011748 0.06185 -1.801521
2008-02-11 09:30:05 51°14.389 2°54.376 -999 0.011542 0.060865 -1.801521
2008-02-11 09:30:10 51°14.382 2°54.354 -999 0.011336 0.059879 -1.801521
2008-02-11 09:30:15 51°14.374 2°54.332 -999 0.011336 0.059877 -1.801521
2008-02-11 09:30:20 51°14.366 2°54.309 -999 0.011336 0.059877 -1.801521
2008-02-11 09:30:25 51°14.358 2°54.287 -999 0.01113 0.058892 -1.801521
2008-02-11 09:30:30 51°14.35 2°54.265 -999 0.011027 0.058398 -1.801521
2008-02-11 09:30:35 51°14.342 2°54.243 -999 0.010924 0.057907 -1.801521
2008-02-11 09:30:40 51°14.334 2°54.22 -999 0.011027 0.058395 -1.801521
2008-02-11 09:30:45 51°14.327 2°54.197 -999 0.011027 0.058396 -1.801521
2008-02-11 09:30:50 51°14.319 2°54.174 -999 0.011027 0.058396 -1.801521
2008-02-11 09:30:55 51°14.311 2°54.152 -999 0.011027 0.058398 -1.801521
2008-02-11 09:31:00 51°14.304 2°54.129 -999 0.010821 0.057418 -1.801521
2008-02-11 09:31:05 51°14.296 2°54.107 -999 0.010924 0.057908 -1.801521
2008-02-11 09:31:10 51°14.288 2°54.084 -999 0.010821 0.057419 -1.801521
2008-02-11 09:31:15 51°14.28 2°54.062 -999 0.010718 0.056925 -1.801521
2008-02-11 09:31:20 51°14.272 2°54.039 -999 0.010718 0.056925 -1.801521
2008-02-11 09:31:25 51°14.265 2°54.015 -999 0.010821 0.057416 -1.801521
2008-02-11 09:31:30 51°14.257 2°53.992 -999 0.010718 0.056925 -1.801521
2008-02-11 09:31:35 51°14.251 2°53.969 -999 0.010718 0.056928 -1.801521
2008-02-11 09:31:40 51°14.244 2°53.945 -999 0.010718 0.056931 -1.801521
2008-02-11 09:31:45 51°14.237 2°53.921 -999 0.010616 0.056442 -1.801521
2008-02-11 09:31:50 51°14.231 2°53.897 -999 0.010616 0.056442 -1.801521
2008-02-11 09:31:55 51°14.224 2°53.873 -999 0.010821 0.057425 -1.801521
2008-02-11 09:32:00 51°14.218 2°53.849 -999 0.010924 0.057919 -1.801521
2008-02-11 09:32:05 51°14.212 2°53.824 -999 0.010924 0.057924 -1.801521
2008-02-11 09:32:10 51°14.205 2°53.8 -999 0.010924 0.057925 -1.801521
2008-02-11 09:32:15 51°14.199 2°53.776 -999 0.010718 0.056942 -1.801521
2008-02-11 09:32:20 51°14.192 2°53.752 -999 0.010718 0.056942 -1.801521
2008-02-11 09:32:25 51°14.185 2°53.728 -999 0.010718 0.05694 -1.801521
2008-02-11 09:32:30 51°14.178 2°53.704 -999 0.010924 0.057921 -1.801521
2008-02-11 09:32:35 51°14.171 2°53.68 -999 0.010718 0.056942 -1.801521
2008-02-11 09:32:40 51°14.164 2°53.656 -999 0.010821 0.057434 -1.801521
2008-02-11 09:32:45 51°14.157 2°53.632 -999 0.010718 0.056945 -1.801521
2008-02-11 09:32:50 51°14.15 2°53.608 -999 0.010718 0.056945 -1.801521
2008-02-11 09:32:55 51°14.144 2°53.583 -999 0.010718 0.056946 -1.801521
2008-02-11 09:33:00 51°14.137 2°53.559 -999 0.010821 0.057438 -1.801521
2008-02-11 09:33:05 51°14.13 2°53.534 -999 0.010718 0.056952 -1.801521
2008-02-11 09:33:10 51°14.123 2°53.508 -999 0.010513 0.055971 -1.801521
2008-02-11 09:33:15 51°14.116 2°53.483 -999 0.010616 0.056459 -1.801521
2008-02-11 09:33:20 51°14.109 2°53.457 -999 0.010616 0.056459 -1.801521
2008-02-11 09:33:25 51°14.102 2°53.431 -999 0.010924 0.057933 -1.801521
2008-02-11 09:33:30 51°14.094 2°53.405 -999 0.010513 0.055971 -1.801521
2008-02-11 09:33:35 51°14.087 2°53.379 -999 0.010718 0.05695 -1.801521
2008-02-11 09:33:40 51°14.079 2°53.353 -999 0.010616 0.05646 -1.801521
2008-02-11 09:33:45 51°14.071 2°53.327 -999 0.010616 0.056459 -1.801521
2008-02-11 09:33:50 51°14.063 2°53.301 -999 0.010616 0.056459 -1.801521
2008-02-11 09:33:55 51°14.056 2°53.274 -999 0.010616 0.05646 -1.766697
2008-02-11 09:34:00 51°14.048 2°53.247 -999 0.010718 0.05695 -1.766697
2008-02-11 09:34:05 51°14.04 2°53.221 -999 0.010616 0.05646 -1.801521
2008-02-11 09:34:10 51°14.032 2°53.194 -999 0.010821 0.057443 -1.801521
2008-02-11 09:34:15 51°14.024 2°53.168 -999 0.010821 0.057454 -1.801521
2008-02-11 09:34:20 51°14.016 2°53.142 -999 0.010821 0.057454 -1.801521
2008-02-11 09:34:25 51°14.007 2°53.116 -999 0.011027 0.058433 -1.766697
2008-02-11 09:34:30 51°13.997 2°53.091 -999 0.010616 0.056469 -1.801521
2008-02-11 09:34:35 51°13.988 2°53.065 -999 0.010718 0.056961 -1.801521
2008-02-11 09:34:40 51°13.978 2°53.04 -999 0.010616 0.056472 -1.801521
2008-02-11 09:34:45 51°13.969 2°53.015 -999 0.011027 0.05844 -1.801521
2008-02-11 09:34:50 51°13.959 2°52.991 -999 0.011027 0.05844 -1.801521
2008-02-11 09:34:55 51°13.949 2°52.968 -999 0.011027 0.058449 -1.766697
2008-02-11 09:35:00 51°13.939 2°52.946 -999 0.010821 0.057464 -1.801521
2008-02-11 09:35:05 51°13.929 2°52.924 -999 0.010821 0.057462 -1.801521
2008-02-11 09:35:10 51°13.918 2°52.902 -999 0.010821 0.057462 -1.801521
2008-02-11 09:35:15 51°13.908 2°52.882 -999 0.010821 0.057463 -1.801521
2008-02-11 09:35:20 51°13.898 2°52.861 -999 0.010821 0.057463 -1.801521
2008-02-11 09:35:25 51°13.888 2°52.84 -999 0.010616 0.05648 -1.801521
2008-02-11 09:35:30 51°13.879 2°52.818 -999 0.011027 0.058446 -1.801521
2008-02-11 09:35:35 51°13.87 2°52.797 -999 0.010718 0.056974 -1.801521
2008-02-11 09:35:40 51°13.862 2°52.775 -999 0.010924 0.057955 -1.801521
2008-02-11 09:35:45 51°13.855 2°52.753 -999 0.010821 0.057468 -1.801521
2008-02-11 09:35:50 51°13.848 2°52.73 -999 0.010821 0.057468 -1.801521
2008-02-11 09:35:55 51°13.841 2°52.707 -999 0.011027 0.058447 -1.801521
2008-02-11 09:36:00 51°13.835 2°52.685 -999 0.010924 0.05796 -1.801521
2008-02-11 09:36:05 51°13.829 2°52.662 -999 0.010924 0.05796 -1.801521
2008-02-11 09:36:10 51°13.823 2°52.638 -999 0.01113 0.058948 -1.801521
2008-02-11 09:36:15 51°13.817 2°52.615 -999 0.010924 0.057966 -1.801521
2008-02-11 09:36:20 51°13.812 2°52.592 -999 0.010924 0.057966 -1.801521
2008-02-11 09:36:25 51°13.806 2°52.569 -999 0.01113 0.05895 -1.801521
2008-02-11 09:36:30 51°13.801 2°52.545 -999 0.011027 0.058461 -1.801521
2008-02-11 09:36:35 51°13.795 2°52.522 -999 0.011336 0.059941 -1.801521
2008-02-11 09:36:40 51°13.79 2°52.5 -999 0.020391 0.10421 -1.766697
2008-02-11 09:36:45 51°13.785 2°52.477 -999 0.061966 0.321098 -1.697049
2008-02-11 09:36:50 51°13.779 2°52.455 -999 0.061966 0.321098 -1.697049
2008-02-11 09:36:55 51°13.774 2°52.434 -999 1.659241 10.423641 -1.279161
2008-02-11 09:37:00 51°13.768 2°52.412 -999 4.415557 31.865526 0.496866
2008-02-11 09:37:05 51°13.763 2°52.391 -999 4.453472 33.53882 0.113802
2008-02-11 09:37:11 51°13.756 2°52.366 -999 4.189282 33.751665 1.193347
2008-02-11 09:37:15 51°13.752 2°52.349 -999 3.936324 33.366938 1.959476
2008-02-11 09:37:20 51°13.747 2°52.328 -999 3.936324 33.366938 1.959476
2008-02-11 09:37:25 51°13.741 2°52.308 -999 3.614052 31.413804 2.447013
2008-02-11 09:37:30 51°13.734 2°52.288 -999 3.567329 31.728958 2.481837
2008-02-11 09:37:35 51°13.728 2°52.269 -999 3.517705 31.708036 2.412189
2008-02-11 09:37:40 51°13.721 2°52.25 -999 3.481551 31.651749 2.307717
2008-02-11 09:37:45 51°13.714 2°52.231 -999 3.453273 31.603641 2.272893
2008-02-11 09:37:50 51°13.706 2°52.213 -999 3.453273 31.603641 2.272893
2008-02-11 09:37:55 51°13.698 2°52.195 -999 3.450167 31.724833 2.307717
2008-02-11 09:38:00 51°13.69 2°52.177 -999 3.44157 31.740365 2.238069
2008-02-11 09:38:05 51°13.682 2°52.16 -999 3.429451 31.702439 2.238069
2008-02-11 09:38:10 51°13.674 2°52.143 -999 3.422926 31.696538 2.203245
2008-02-11 09:38:15 51°13.665 2°52.126 -999 3.413293 31.65341 2.203245
2008-02-11 09:38:20 51°13.656 2°52.109 -999 3.413293 31.65341 2.203245
2008-02-11 09:38:25 51°13.647 2°52.093 -999 3.409461 31.66469 2.133597
2008-02-11 09:38:30 51°13.638 2°52.077 -999 3.40335 31.634974 2.133597
2008-02-11 09:38:35 51°13.629 2°52.061 -999 3.395789 31.586747 2.063949
2008-02-11 09:38:40 51°13.62 2°52.045 -999 3.396618 31.608437 1.9943
2008-02-11 09:38:45 51°13.61 2°52.029 -999 3.39434 31.607699 2.063949
2008-02-11 09:38:50 51°13.601 2°52.013 -999 3.39434 31.607699 2.063949
2008-02-11 09:38:55 51°13.592 2°51.996 -999 3.398483 31.665436 2.029124
2008-02-11 09:39:00 51°13.583 2°51.98 -999 3.399519 31.689338 1.9943
2008-02-11 09:39:05 51°13.574 2°51.964 -999 3.394651 31.653943 2.029124
2008-02-11 09:39:10 51°13.564 2°51.948 -999 3.397137 31.698154 1.959476
2008-02-11 09:39:15 51°13.555 2°51.932 -999 3.397137 31.709615 1.9943
2008-02-11 09:39:20 51°13.546 2°51.916 -999 3.397137 31.709615 1.9943
2008-02-11 09:39:25 51°13.537 2°51.9 -999 3.394134 31.690852 2.029124
2008-02-11 09:39:30 51°13.528 2°51.884 -999 3.354671 31.291185 1.9943
2008-02-11 09:39:35 51°13.518 2°51.867 -999 3.386158 31.619695 2.063949
2008-02-11 09:39:40 51°13.509 2°51.851 -999 3.385226 31.617079 2.029124
2008-02-11 09:39:45 51°13.5 2°51.835 -999 3.389266 31.660694 2.063949
2008-02-11 09:39:50 51°13.491 2°51.819 -999 3.389266 31.660694 2.063949
2008-02-11 09:39:55 51°13.482 2°51.803 -999 3.392062 31.696735 2.063949
2008-02-11 09:40:00 51°13.472 2°51.787 -999 3.392062 31.703798 2.063949
2008-02-11 09:40:05 51°13.463 2°51.77 -999 3.394445 31.732035 2.029124
2008-02-11 09:40:10 51°13.454 2°51.754 -999 3.388955 31.678642 2.063949
2008-02-11 09:40:15 51°13.445 2°51.738 -999 3.394238 31.735191 2.063949
2008-02-11 09:40:20 51°13.436 2°51.721 -999 3.394238 31.735191 2.063949
2008-02-11 09:40:25 51°13.427 2°51.705 -999 3.393306 31.728174 2.029124
2008-02-11 09:40:30 51°13.418 2°51.688 -999 3.38533 31.646345 2.063949
2008-02-11 09:40:35 51°13.409 2°51.672 -999 3.393927 31.741696 2.098773
2008-02-11 09:40:40 51°13.4 2°51.656 -999 3.38937 31.701485 2.098773
2008-02-11 09:40:45 51°13.39 2°51.639 -999 3.396413 31.776346 2.098773
2008-02-11 09:40:50 51°13.382 2°51.623 -999 3.396413 31.776346 2.098773
2008-02-11 09:40:55 51°13.372 2°51.607 -999 3.390716 31.721646 2.133597
2008-02-11 09:41:00 51°13.363 2°51.591 -999 3.392166 31.742006 2.203245
2008-02-11 09:41:05 51°13.354 2°51.575 -999 3.386988 31.68737 2.168421
2008-02-11 09:41:10 51°13.345 2°51.558 -999 3.397863 31.803811 2.238069
2008-02-11 09:41:15 51°13.336 2°51.542 -999 3.402214 31.84899 2.168421
2008-02-11 09:41:20 51°13.327 2°51.526 -999 3.402214 31.84899 2.168421
2008-02-11 09:41:25 51°13.317 2°51.51 -999 3.399935 31.829762 2.238069
2008-02-11 09:41:30 51°13.308 2°51.493 -999 3.39776 31.809833 2.203245
2008-02-11 09:41:35 51°13.299 2°51.477 -999 3.400557 31.838882 2.307717
2008-02-11 09:41:40 51°13.29 2°51.461 -999 3.400867 31.844775 2.307717
2008-02-11 09:41:45 51°13.282 2°51.446 -999 3.399728 31.836492 2.307717
2008-02-11 09:41:50 51°13.274 2°51.431 -999 3.399728 31.836492 2.307717
2008-02-11 09:41:55 51°13.267 2°51.416 -999 3.400764 31.849919 2.342541
2008-02-11 09:42:00 51°13.261 2°51.401 -999 3.402318 31.866953 2.342541
2008-02-11 09:42:05 51°13.257 2°51.387 -999 3.39921 31.83733 2.377365
2008-02-11 09:42:10 51°13.253 2°51.372 -999 3.400764 31.852586 2.377365
2008-02-11 09:42:15 51°13.25 2°51.359 -999 3.399417 31.83504 2.412189
2008-02-11 09:42:20 51°13.248 2°51.345 -999 3.399417 31.83504 2.412189
2008-02-11 09:42:25 51°13.246 2°51.332 -999 3.401075 31.852259 2.377365
2008-02-11 09:42:30 51°13.245 2°51.319 -999 3.402007 31.861946 2.447013
2008-02-11 09:42:35 51°13.244 2°51.306 -999 3.402732 31.867702 2.481837
2008-02-11 09:42:40 51°13.245 2°51.294 -999 3.402628 31.864847 2.516661
2008-02-11 09:42:45 51°13.245 2°51.281 -999 3.401489 31.85212 2.516661
2008-02-11 09:42:50 51°13.247 2°51.269 -999 3.401489 31.85212 2.516661
2008-02-11 09:42:55 51°13.25 2°51.258 -999 3.40066 31.842623 2.516661
2008-02-11 09:43:00 51°13.253 2°51.248 -999 3.402318 31.861618 2.551485
2008-02-11 09:43:05 51°13.257 2°51.239 -999 3.399935 31.837756 2.516661
2008-02-11 09:43:10 51°13.261 2°51.23 -999 3.39921 31.829335 2.516661
2008-02-11 09:43:15 51°13.266 2°51.223 -999 3.400246 31.839207 2.412189
2008-02-11 09:43:20 51°13.271 2°51.216 -999 3.400246 31.839207 2.412189
2008-02-11 09:43:25 51°13.276 2°51.212 -999 3.39921 31.825783 2.377365
2008-02-11 09:43:30 51°13.281 2°51.208 -999 3.4018 31.853571 2.307717
2008-02-11 09:43:35 51°13.287 2°51.205 -999 3.399107 31.827371 2.272893
2008-02-11 09:43:40 51°13.292 2°51.203 -999 3.40035 31.841172 2.342541
2008-02-11 09:43:45 51°13.297 2°51.203 -999 3.401282 31.850857 2.342541
2008-02-11 09:43:50 51°13.302 2°51.204 -999 3.401282 31.850857 2.342541
2008-02-11 09:43:55 51°13.307 2°51.206 -999 3.401385 31.852822 2.377365
2008-02-11 09:44:00 51°13.311 2°51.209 -999 3.40066 31.843511 2.342541
2008-02-11 09:44:05 51°13.316 2°51.213 -999 3.399314 31.829523 2.377365
2008-02-11 09:44:10 51°13.32 2°51.217 -999 3.401696 31.853384 2.377365
2008-02-11 09:44:15 51°13.324 2°51.223 -999 3.400764 31.839257 2.342541
2008-02-11 09:44:20 51°13.329 2°51.229 -999 3.400764 31.839257 2.342541
2008-02-11 09:44:25 51°13.333 2°51.236 -999 3.399521 31.827235 2.307717
2008-02-11 09:44:30 51°13.337 2°51.244 -999 3.395274 31.778696 2.238069
2008-02-11 09:44:35 51°13.342 2°51.252 -999 3.401178 31.846226 2.307717
2008-02-11 09:44:40 51°13.347 2°51.26 -999 3.400142 31.84435 2.238069
2008-02-11 09:44:45 51°13.352 2°51.268 -999 3.402732 31.879266 2.168421
2008-02-11 09:44:50 51°13.358 2°51.276 -999 3.402732 31.879266 2.168421
2008-02-11 09:44:55 51°13.364 2°51.284 -999 3.403872 31.895561 2.203245
2008-02-11 09:45:00 51°13.37 2°51.292 -999 3.405115 31.912048 2.203245
2008-02-11 09:45:05 51°13.376 2°51.301 -999 3.401282 31.87487 2.203245
2008-02-11 09:45:10 51°13.382 2°51.31 -999 3.399936 31.863539 2.133597
2008-02-11 09:45:15 51°13.388 2°51.319 -999 3.402318 31.887421 2.133597
2008-02-11 09:45:20 51°13.394 2°51.329 -999 3.402318 31.887421 2.133597
2008-02-11 09:45:25 51°13.4 2°51.339 -999 3.403043 31.89496 2.098773
2008-02-11 09:45:30 51°13.405 2°51.348 -999 3.4018 31.885597 2.063949
2008-02-11 09:45:35 51°13.41 2°51.357 -999 3.403561 31.905692 2.063949
2008-02-11 09:45:40 51°13.415 2°51.365 -999 3.403354 31.90532 2.029124
2008-02-11 09:45:45 51°13.419 2°51.373 -999 3.399625 31.867428 2.029124
2008-02-11 09:45:50 51°13.423 2°51.381 -999 3.399625 31.867428 2.029124
2008-02-11 09:45:55 51°13.426 2°51.388 -999 3.403665 31.910334 2.029124
2008-02-11 09:46:00 51°13.43 2°51.395 -999 3.400661 31.884434 1.9943
2008-02-11 09:46:05 51°13.433 2°51.401 -999 3.398382 31.860731 1.959476
2008-02-11 09:46:10 51°13.436 2°51.407 -999 3.397761 31.856937 1.959476
2008-02-11 09:46:15 51°13.439 2°51.413 -999 3.399521 31.877035 1.959476
2008-02-11 09:46:20 51°13.441 2°51.418 -999 3.399521 31.877035 1.959476
2008-02-11 09:46:25 51°13.444 2°51.423 -999 3.403354 31.918693 1.959476
2008-02-11 09:46:30 51°13.446 2°51.427 -999 3.402007 31.905573 1.924652
2008-02-11 09:46:35 51°13.448 2°51.431 -999 3.399936 31.886691 1.889828
2008-02-11 09:46:40 51°13.451 2°51.435 -999 3.401697 31.905906 1.889828
2008-02-11 09:46:45 51°13.452 2°51.438 -999 3.40035 31.894568 1.924652
2008-02-11 09:46:50 51°13.455 2°51.442 -999 3.40035 31.894568 1.924652
2008-02-11 09:46:55 51°13.457 2°51.444 -999 3.400247 31.897056 1.855004
2008-02-11 09:47:00 51°13.459 2°51.448 -999 3.400143 31.898653 1.855004
2008-02-11 09:47:05 51°13.461 2°51.45 -999 3.4018 31.915012 1.855004
2008-02-11 09:47:10 51°13.463 2°51.453 -999 3.399314 31.890028 1.82018
2008-02-11 09:47:15 51°13.464 2°51.456 -999 3.399418 31.894673 1.82018
2008-02-11 09:47:20 51°13.466 2°51.458 -999 3.399418 31.894673 1.82018
2008-02-11 09:47:25 51°13.468 2°51.46 -999 3.396621 31.864672 1.750532
2008-02-11 09:47:30 51°13.47 2°51.462 -999 3.398175 31.882626 1.855004
2008-02-11 09:47:35 51°13.473 2°51.464 -999 3.398693 31.888909 1.82018
2008-02-11 09:47:40 51°13.475 2°51.466 -999 3.400868 31.91423 1.715708
2008-02-11 09:47:45 51°13.477 2°51.468 -999 3.398486 31.887644 1.750532
2008-02-11 09:47:50 51°13.479 2°51.47 -999 3.398486 31.887644 1.750532
2008-02-11 09:47:55 51°13.481 2°51.471 -999 3.395482 31.859049 1.750532
2008-02-11 09:48:00 51°13.483 2°51.474 -999 3.392168 31.82455 1.750532
2008-02-11 09:48:05 51°13.485 2°51.475 -999 3.398382 31.889241 1.750532
2008-02-11 09:48:10 51°13.487 2°51.477 -999 3.397554 31.882397 1.715708
2008-02-11 09:48:15 51°13.489 2°51.479 -999 3.39341 31.838377 1.680884
2008-02-11 09:48:20 51°13.49 2°51.48 -999 3.39341 31.838377 1.680884
2008-02-11 09:48:25 51°13.491 2°51.481 -999 3.398382 31.892808 1.680884
2008-02-11 09:48:31 51°13.493 2°51.482 -999 3.398382 31.8937 1.680884
2008-02-11 09:48:35 51°13.493 2°51.483 -999 3.394136 31.847705 1.611236
2008-02-11 09:48:40 51°13.494 2°51.484 -999 3.394653 31.853987 1.576412
2008-02-11 09:48:45 51°13.495 2°51.484 -999 3.399211 31.901436 1.576412
2008-02-11 09:48:50 51°13.495 2°51.485 -999 3.399211 31.901436 1.576412
2008-02-11 09:48:55 51°13.496 2°51.486 -999 3.396518 31.874288 1.576412
2008-02-11 09:49:00 51°13.496 2°51.486 -999 3.395586 31.865474 1.576412
2008-02-11 09:49:05 51°13.496 2°51.486 -999 3.396622 31.877149 1.576412
2008-02-11 09:49:10 51°13.497 2°51.487 -999 3.396829 31.880198 1.576412
2008-02-11 09:49:15 51°13.497 2°51.487 -999 3.398382 31.897268 1.506764
2008-02-11 09:49:20 51°13.497 2°51.488 -999 3.398382 31.897268 1.506764
2008-02-11 09:49:25 51°13.497 2°51.488 -999 3.396104 31.875323 1.506764
2008-02-11 09:49:30 51°13.497 2°51.488 -999 3.388957 31.800915 1.506764
2008-02-11 09:49:35 51°13.497 2°51.488 -999 3.394757 31.861302 1.541588
2008-02-11 09:49:40 51°13.497 2°51.488 -999 3.397243 31.888972 1.47194
2008-02-11 09:49:45 51°13.497 2°51.488 -999 3.397243 31.888972 1.506764
2008-02-11 09:49:50 51°13.497 2°51.488 -999 3.397243 31.888972 1.506764
2008-02-11 09:49:55 51°13.497 2°51.487 -999 3.394032 31.855535 1.506764
2008-02-11 09:50:00 51°13.497 2°51.487 -999 3.398072 31.896709 1.506764
2008-02-11 09:50:05 51°13.497 2°51.487 -999 3.396311 31.878372 1.506764
2008-02-11 09:50:10 51°13.497 2°51.486 -999 3.392271 31.837201 1.506764
2008-02-11 09:50:15 51°13.497 2°51.486 -999 3.395482 31.872418 1.506764
2008-02-11 09:50:20 51°13.497 2°51.485 -999 3.395482 31.872418 1.506764
2008-02-11 09:50:25 51°13.497 2°51.485 -999 3.397554 31.893992 1.506764
2008-02-11 09:50:30 51°13.497 2°51.484 -999 3.394757 31.865759 1.437116
2008-02-11 09:50:35 51°13.497 2°51.484 -999 3.39859 31.905673 1.47194
2008-02-11 09:50:40 51°13.497 2°51.483 -999 3.396725 31.885362 1.47194
2008-02-11 09:50:45 51°13.496 2°51.482 -999 3.396414 31.883018 1.437116
2008-02-11 09:50:51 51°13.496 2°51.481 -999 3.396414 31.883018 1.437116
2008-02-11 09:50:55 51°13.496 2°51.481 -999 3.397036 31.889491 1.47194
2008-02-11 09:51:00 51°13.496 2°51.48 -999 3.393825 31.85516 1.437116
2008-02-11 09:51:05 51°13.496 2°51.479 -999 3.396829 31.887333 1.47194
2008-02-11 09:51:10 51°13.495 2°51.478 -999 3.393618 31.855677 1.437116
2008-02-11 09:51:15 51°13.495 2°51.477 -999 3.392996 31.849205 1.437116
2008-02-11 09:51:20 51°13.495 2°51.476 -999 3.392996 31.849205 1.437116
2008-02-11 09:51:25 51°13.495 2°51.475 -999 3.396207 31.882645 1.402292
2008-02-11 09:51:30 51°13.494 2°51.474 -999 3.398486 31.907272 1.437116
2008-02-11 09:51:35 51°13.494 2°51.473 -999 3.396932 31.891981 1.437116
2008-02-11 09:51:40 51°13.494 2°51.472 -999 3.397554 31.899347 1.437116
2008-02-11 09:51:45 51°13.494 2°51.471 -999 3.394136 31.864636 1.402292
2008-02-11 09:51:50 51°13.494 2°51.47 -999 3.394136 31.864636 1.402292
2008-02-11 09:51:55 51°13.493 2°51.469 -999 3.393204 31.854927 1.437116
2008-02-11 09:52:00 51°13.493 2°51.468 -999 3.390096 31.820786 1.437116
2008-02-11 09:52:05 51°13.493 2°51.466 -999 3.397036 31.893952 1.402292
2008-02-11 09:52:10 51°13.492 2°51.465 -999 3.39165 31.837856 1.402292
2008-02-11 09:52:15 51°13.492 2°51.464 -999 3.395793 31.880114 1.437116
2008-02-11 09:52:20 51°13.492 2°51.462 -999 3.395793 31.880114 1.437116
2008-02-11 09:52:25 51°13.491 2°51.461 -999 3.397865 31.902584 1.367467
2008-02-11 09:52:30 51°13.491 2°51.46 -999 3.395172 31.875424 1.402292
2008-02-11 09:52:35 51°13.491 2°51.458 -999 3.392789 31.850612 1.367467
2008-02-11 09:52:40 51°13.491 2°51.457 -999 3.394136 31.864636 1.402292
2008-02-11 09:52:45 51°13.49 2°51.456 -999 3.395586 31.87974 1.367467
2008-02-11 09:52:50 51°13.49 2°51.454 -999 3.395586 31.87974 1.367467
2008-02-11 09:52:55 51°13.49 2°51.453 -999 3.397243 31.897003 1.402292
2008-02-11 09:53:00 51°13.489 2°51.451 -999 3.389785 31.820222 1.367467
2008-02-11 09:53:05 51°13.489 2°51.45 -999 3.394447 31.868764 1.402292
2008-02-11 09:53:11 51°13.489 2°51.448 -999 3.398383 31.908871 1.367467
2008-02-11 09:53:15 51°13.488 2°51.447 -999 3.393929 31.862479 1.332643
2008-02-11 09:53:20 51°13.488 2°51.445 -999 3.393929 31.862479 1.332643
2008-02-11 09:53:25 51°13.488 2°51.444 -999 3.392375 31.847189 1.332643
2008-02-11 09:53:30 51°13.487 2°51.442 -999 3.397036 31.895737 1.332643
2008-02-11 09:53:35 51°13.487 2°51.44 -999 3.398693 31.913001 1.332643
2008-02-11 09:53:40 51°13.487 2°51.439 -999 3.395897 31.884761 1.297819
2008-02-11 09:53:45 51°13.486 2°51.437 -999 3.396104 31.887811 1.367467
2008-02-11 09:53:50 51°13.486 2°51.435 -999 3.396104 31.887811 1.367467
2008-02-11 09:53:55 51°13.485 2°51.434 -999 3.396829 31.894472 1.332643
2008-02-11 09:54:00 51°13.485 2°51.432 -999 3.399108 31.918211 1.367467
2008-02-11 09:54:05 51°13.485 2°51.43 -999 3.392479 31.850941 1.332643
2008-02-11 09:54:10 51°13.484 2°51.429 -999 3.396104 31.889596 1.367467
2008-02-11 09:54:15 51°13.484 2°51.427 -999 3.395897 31.887438 1.297819
2008-02-11 09:54:20 51°13.483 2°51.425 -999 3.395897 31.887438 1.297819
2008-02-11 09:54:25 51°13.483 2°51.423 -999 3.397036 31.899308 1.367467
2008-02-11 09:54:30 51°13.482 2°51.421 -999 3.396518 31.89302 1.297819
2008-02-11 09:54:35 51°13.482 2°51.42 -999 3.394032 31.867124 1.297819
2008-02-11 09:54:40 51°13.481 2°51.418 -999 3.397243 31.901466 1.262995
2008-02-11 09:54:45 51°13.481 2°51.416 -999 3.395068 31.878806 1.262995
2008-02-11 09:54:50 51°13.481 2°51.414 -999 3.395068 31.878806 1.262995
2008-02-11 09:54:55 51°13.48 2°51.412 -999 3.396518 31.894805 1.262995
2008-02-11 09:55:00 51°13.48 2°51.41 -999 3.395586 31.885985 1.228171
2008-02-11 09:55:05 51°13.479 2°51.408 -999 3.395068 31.881482 1.262995
2008-02-11 09:55:10 51°13.479 2°51.406 -999 3.3931 31.860981 1.262995
2008-02-11 09:55:15 51°13.478 2°51.404 -999 3.393307 31.863139 1.228171
2008-02-11 09:55:20 51°13.478 2°51.402 -999 3.393307 31.863139 1.228171
2008-02-11 09:55:25 51°13.477 2°51.4 -999 3.397347 31.905224 1.262995
2008-02-11 09:55:30 51°13.477 2°51.398 -999 3.394757 31.877353 1.193347
2008-02-11 09:55:35 51°13.476 2°51.396 -999 3.391961 31.849112 1.228171
2008-02-11 09:55:40 51°13.476 2°51.394 -999 3.396 31.890302 1.193347
2008-02-11 09:55:45 51°13.476 2°51.392 -999 3.398693 31.91836 1.228171
2008-02-11 09:55:50 51°13.475 2°51.39 -999 3.398693 31.91836 1.228171
2008-02-11 09:55:55 51°13.475 2°51.388 -999 3.391754 31.846063 1.193347
2008-02-11 09:56:00 51°13.474 2°51.386 -999 3.397658 31.909354 1.158523
2008-02-11 09:56:05 51°13.474 2°51.384 -999 3.39859 31.919961 1.193347
2008-02-11 09:56:10 51°13.473 2°51.382 -999 3.398175 31.914751 1.158523
2008-02-11 09:56:15 51°13.473 2°51.38 -999 3.394757 31.88003 1.228171
2008-02-11 09:56:20 51°13.472 2°51.378 -999 3.394757 31.88003 1.228171
2008-02-11 09:56:25 51°13.472 2°51.375 -999 3.396518 31.898376 1.228171
2008-02-11 09:56:30 51°13.471 2°51.373 -999 3.40004 31.934179 1.228171
2008-02-11 09:56:35 51°13.471 2°51.371 -999 3.39714 31.904851 1.193347
2008-02-11 09:56:40 51°13.47 2°51.369 -999 3.393722 31.868347 1.228171
2008-02-11 09:56:45 51°13.47 2°51.367 -999 3.397761 31.910434 1.193347
2008-02-11 09:56:50 51°13.469 2°51.365 -999 3.397761 31.910434 1.193347
2008-02-11 09:56:55 51°13.468 2°51.363 -999 3.390614 31.836868 1.193347
2008-02-11 09:57:00 51°13.468 2°51.361 -999 3.396933 31.902693 1.158523
2008-02-11 09:57:05 51°13.467 2°51.358 -999 3.398072 31.914565 1.193347
2008-02-11 09:57:10 51°13.467 2°51.356 -999 3.395793 31.889929 1.228171
2008-02-11 09:57:15 51°13.467 2°51.354 -999 3.396104 31.893166 1.193347
2008-02-11 09:57:20 51°13.466 2°51.352 -999 3.396104 31.893166 1.193347
2008-02-11 09:57:25 51°13.465 2°51.35 -999 3.395586 31.88777 1.193347
2008-02-11 09:57:30 51°13.465 2°51.347 -999 3.394757 31.88003 1.228171
2008-02-11 09:57:35 51°13.464 2°51.345 -999 3.399833 31.932914 1.158523
2008-02-11 09:57:40 51°13.464 2°51.343 -999 3.389786 31.828237 1.123699
2008-02-11 09:57:45 51°13.463 2°51.341 -999 3.395586 31.889555 1.123699
2008-02-11 09:57:50 51°13.462 2°51.338 -999 3.395586 31.889555 1.123699
2008-02-11 09:57:55 51°13.462 2°51.336 -999 3.397036 31.904665 1.158523
2008-02-11 09:58:00 51°13.461 2°51.334 -999 3.396104 31.894059 1.123699
2008-02-11 09:58:05 51°13.461 2°51.331 -999 3.396518 31.899269 1.123699
2008-02-11 09:58:10 51°13.46 2°51.329 -999 3.396933 31.904479 1.088875
2008-02-11 09:58:15 51°13.46 2°51.327 -999 3.39569 31.890635 1.088875
2008-02-11 09:58:20 51°13.459 2°51.324 -999 3.39569 31.890635 1.088875
2008-02-11 09:58:25 51°13.459 2°51.322 -999 3.395793 31.891714 1.123699
2008-02-11 09:58:30 51°13.458 2°51.32 -999 3.396 31.894765 1.123699
2008-02-11 09:58:35 51°13.458 2°51.317 -999 3.394032 31.875152 1.123699
2008-02-11 09:58:40 51°13.457 2°51.315 -999 3.392375 31.858778 1.088875
2008-02-11 09:58:45 51°13.456 2°51.312 -999 3.395275 31.888996 1.088875
2008-02-11 09:58:50 51°13.456 2°51.31 -999 3.395275 31.888996 1.088875
2008-02-11 09:58:55 51°13.455 2°51.308 -999 3.399108 31.928039 1.054051
2008-02-11 09:59:00 51°13.455 2°51.305 -999 3.389475 31.826782 1.088875
2008-02-11 09:59:05 51°13.455 2°51.303 -999 3.396 31.894765 1.088875
2008-02-11 09:59:10 51°13.454 2°51.3 -999 3.39714 31.905744 1.054051
2008-02-11 09:59:15 51°13.454 2°51.298 -999 3.392064 31.852865 1.054051
2008-02-11 09:59:20 51°13.453 2°51.296 -999 3.392064 31.852865 1.054051
2008-02-11 09:59:25 51°13.452 2°51.293 -999 3.389475 31.826782 1.088875
2008-02-11 09:59:30 51°13.452 2°51.291 -999 3.392686 31.85934 1.088875
2008-02-11 09:59:35 51°13.452 2°51.289 -999 3.386575 31.794794 1.054051
2008-02-11 09:59:40 51°13.451 2°51.288 -999 3.396518 31.89659 1.088875
2008-02-11 09:59:45 51°13.451 2°51.287 -999 3.399108 31.919997 1.576412
2008-02-11 09:59:50 51°13.451 2°51.286 -999 3.399108 31.919997 1.576412
2008-02-11 09:59:55 51°13.452 2°51.286 -999 3.395482 31.877769 1.437116
2008-02-11 10:00:00 51°13.452 2°51.287 -999 3.401801 31.938226 1.64606
2008-02-11 10:00:05 51°13.453 2°51.289 -999 3.402008 31.937703 1.855004
2008-02-11 10:00:10 51°13.454 2°51.291 -999 3.400661 31.920999 1.855004
2008-02-11 10:00:15 51°13.454 2°51.294 -999 3.399418 31.90627 1.855004
2008-02-11 10:00:20 51°13.455 2°51.297 -999 3.399418 31.90627 1.855004
2008-02-11 10:00:25 51°13.456 2°51.301 -999 3.396932 31.880385 1.785356
2008-02-11 10:00:30 51°13.458 2°51.306 -999 3.401593 31.927136 1.82018
2008-02-11 10:00:35 51°13.46 2°51.312 -999 3.397139 31.878084 1.889828
2008-02-11 10:00:40 51°13.462 2°51.319 -999 3.401075 31.916387 1.82018
2008-02-11 10:00:45 51°13.464 2°51.327 -999 3.399418 31.899132 1.785356
2008-02-11 10:00:50 51°13.466 2°51.336 -999 3.399418 31.899132 1.785356
2008-02-11 10:00:55 51°13.468 2°51.346 -999 3.400765 31.912259 1.750532
2008-02-11 10:01:00 51°13.471 2°51.356 -999 3.396829 31.870393 1.750532
2008-02-11 10:01:05 51°13.473 2°51.367 -999 3.397657 31.878127 1.680884
2008-02-11 10:01:10 51°13.477 2°51.378 -999 3.400454 31.90724 1.541588
2008-02-11 10:01:15 51°13.48 2°51.39 -999 3.398486 31.884969 1.541588
2008-02-11 10:01:20 51°13.484 2°51.402 -999 3.398486 31.884969 1.541588
2008-02-11 10:01:25 51°13.487 2°51.413 -999 3.395275 31.852439 1.611236
2008-02-11 10:01:30 51°13.49 2°51.424 -999 3.40294 31.930443 1.715708
2008-02-11 10:01:35 51°13.493 2°51.433 -999 3.399936 31.897389 1.82018
2008-02-11 10:01:40 51°13.495 2°51.442 -999 3.404804 31.947174 1.82018
2008-02-11 10:01:45 51°13.498 2°51.451 -999 3.406358 31.961563 1.82018
2008-02-11 10:01:50 51°13.5 2°51.459 -999 3.406358 31.961563 1.82018
2008-02-11 10:01:55 51°13.503 2°51.466 -999 3.40584 31.957065 1.82018
2008-02-11 10:02:00 51°13.505 2°51.472 -999 3.402836 31.926686 1.855004
2008-02-11 10:02:05 51°13.508 2°51.479 -999 3.401697 31.913934 1.855004
2008-02-11 10:02:11 51°13.51 2°51.485 -999 3.404286 31.94089 1.82018
2008-02-11 10:02:15 51°13.512 2°51.489 -999 3.408948 31.989419 1.785356
2008-02-11 10:02:20 51°13.514 2°51.494 -999 3.408948 31.989419 1.785356
2008-02-11 10:02:25 51°13.516 2°51.498 -999 3.407808 31.977555 1.715708
2008-02-11 10:02:30 51°13.518 2°51.502 -999 3.408637 31.986183 1.611236
2008-02-11 10:02:35 51°13.519 2°51.505 -999 3.407808 31.979343 1.576412
2008-02-11 10:02:40 51°13.519 2°51.508 -999 3.40729 31.974844 1.506764
2008-02-11 10:02:45 51°13.52 2°51.51 -999 3.409051 31.993181 1.506764
2008-02-11 10:02:50 51°13.521 2°51.513 -999 3.409051 31.993181 1.506764
2008-02-11 10:02:55 51°13.521 2°51.515 -999 3.405529 31.957403 1.437116
2008-02-11 10:03:00 51°13.521 2°51.517 -999 3.40874 31.992628 1.47194
2008-02-11 10:03:05 51°13.521 2°51.519 -999 3.409362 31.997311 1.541588
2008-02-11 10:03:10 51°13.521 2°51.521 -999 3.405529 31.95651 1.47194
2008-02-11 10:03:15 51°13.52 2°51.523 -999 3.406358 31.96335 1.402292
2008-02-11 10:03:20 51°13.52 2°51.524 -999 3.406358 31.96335 1.402292
2008-02-11 10:03:25 51°13.52 2°51.526 -999 3.408533 31.985999 1.367467
2008-02-11 10:03:30 51°13.519 2°51.527 -999 3.408844 31.989235 1.367467
2008-02-11 10:03:35 51°13.519 2°51.529 -999 3.40843 31.98492 1.367467
2008-02-11 10:03:40 51°13.519 2°51.53 -999 3.410708 32.007755 1.367467
2008-02-11 10:03:45 51°13.518 2°51.531 -999 3.410398 32.005414 1.332643
2008-02-11 10:03:50 51°13.518 2°51.532 -999 3.410398 32.005414 1.332643
2008-02-11 10:03:55 51°13.518 2°51.533 -999 3.410501 32.004703 1.332643
2008-02-11 10:04:00 51°13.517 2°51.534 -999 3.411951 32.019804 1.297819
2008-02-11 10:04:05 51°13.517 2°51.535 -999 3.406462 31.961748 1.332643
2008-02-11 10:04:10 51°13.516 2°51.536 -999 3.410191 31.999678 1.367467
2008-02-11 10:04:15 51°13.516 2°51.537 -999 3.411848 32.01783 1.332643
2008-02-11 10:04:20 51°13.515 2°51.537 -999 3.411848 32.01783 1.332643
2008-02-11 10:04:25 51°13.515 2°51.538 -999 3.406979 31.96714 1.332643
2008-02-11 10:04:31 51°13.515 2°51.539 -999 3.409983 31.998415 1.367467
2008-02-11 10:04:35 51°13.514 2°51.539 -999 3.40988 31.998231 1.367467
2008-02-11 10:04:40 51°13.514 2°51.539 -999 3.411641 32.017463 1.332643
2008-02-11 10:04:45 51°13.513 2°51.539 -999 3.405633 31.955801 1.367467
2008-02-11 10:04:51 51°13.512 2°51.54 -999 3.405633 31.955801 1.367467
2008-02-11 10:04:55 51°13.512 2°51.54 -999 3.406669 31.966586 1.297819
2008-02-11 10:05:00 51°13.512 2°51.54 -999 3.411019 32.010096 1.262995
2008-02-11 10:05:05 51°13.511 2°51.54 -999 3.409776 31.998047 1.297819
2008-02-11 10:05:10 51°13.51 2°51.54 -999 3.406462 31.964429 1.297819
2008-02-11 10:05:15 51°13.51 2°51.54 -999 3.405944 31.959037 1.228171
2008-02-11 10:05:20 51°13.509 2°51.54 -999 3.405944 31.959037 1.228171
2008-02-11 10:05:25 51°13.508 2°51.54 -999 3.40874 31.988156 1.228171
2008-02-11 10:05:30 51°13.508 2°51.539 -999 3.411744 32.020332 1.228171
2008-02-11 10:05:35 51°13.507 2°51.539 -999 3.40874 31.988156 1.297819
2008-02-11 10:05:40 51°13.506 2°51.539 -999 3.409051 31.993181 1.262995
2008-02-11 10:05:45 51°13.506 2°51.539 -999 3.408326 31.98563 1.262995
2008-02-11 10:05:50 51°13.505 2°51.538 -999 3.408326 31.98563 1.262995
2008-02-11 10:05:55 51°13.504 2°51.538 -999 3.407497 31.977002 1.262995
2008-02-11 10:06:00 51°13.504 2°51.537 -999 3.410294 32.00702 1.228171
2008-02-11 10:06:05 51°13.503 2°51.537 -999 3.404908 31.951826 1.193347
2008-02-11 10:06:10 51°13.503 2°51.536 -999 3.408533 31.990471 1.123699
2008-02-11 10:06:15 51°13.502 2°51.535 -999 3.403043 31.935985 1.158523
2008-02-11 10:06:20 51°13.501 2°51.535 -999 3.403043 31.935985 1.158523
2008-02-11 10:06:25 51°13.501 2°51.534 -999 3.399936 31.903632 1.193347
2008-02-11 10:06:30 51°13.5 2°51.533 -999 3.401593 31.919994 1.193347
2008-02-11 10:06:35 51°13.499 2°51.532 -999 3.398175 31.885301 1.123699
2008-02-11 10:06:40 51°13.499 2°51.531 -999 3.398486 31.891211 1.123699
2008-02-11 10:06:45 51°13.498 2°51.531 -999 3.395482 31.85994 1.088875
2008-02-11 10:06:51 51°13.497 2°51.529 -999 3.395482 31.85994 1.088875
2008-02-11 10:06:55 51°13.497 2°51.529 -999 3.394446 31.85094 1.054051
2008-02-11 10:07:00 51°13.496 2°51.528 -999 3.396622 31.875366 1.088875
2008-02-11 10:07:05 51°13.495 2°51.527 -999 3.387714 31.783532 1.054051
2008-02-11 10:07:10 51°13.495 2°51.525 -999 3.393514 31.844798 1.088875
2008-02-11 10:07:15 51°13.494 2°51.524 -999 3.386781 31.775608 1.088875
2008-02-11 10:07:20 51°13.494 2°51.523 -999 3.386781 31.775608 1.088875
2008-02-11 10:07:25 51°13.493 2°51.522 -999 3.386678 31.775418 1.123699
2008-02-11 10:07:30 51°13.492 2°51.521 -999 3.389682 31.807573 1.088875
2008-02-11 10:07:35 51°13.491 2°51.519 -999 3.390303 31.814932 1.054051
2008-02-11 10:07:40 51°13.491 2°51.518 -999 3.387817 31.789055 1.054051
2008-02-11 10:07:45 51°13.49 2°51.517 -999 3.384192 31.7531 1.123699
2008-02-11 10:07:50 51°13.49 2°51.515 -999 3.384192 31.7531 1.123699
2008-02-11 10:07:55 51°13.489 2°51.514 -999 3.390096 31.815445 1.158523
2008-02-11 10:08:00 51°13.488 2°51.513 -999 3.38616 31.773583 1.158523
2008-02-11 10:08:05 51°13.488 2°51.511 -999 3.385746 31.769271 1.193347
2008-02-11 10:08:10 51°13.487 2°51.51 -999 3.391235 31.826417 1.228171
2008-02-11 10:08:15 51°13.487 2°51.508 -999 3.389889 31.813289 1.193347
2008-02-11 10:08:20 51°13.486 2°51.507 -999 3.389889 31.813289 1.193347
2008-02-11 10:08:25 51°13.485 2°51.505 -999 3.389475 31.808975 1.193347
2008-02-11 10:08:30 51°13.485 2°51.504 -999 3.388542 31.799271 1.193347
2008-02-11 10:08:35 51°13.484 2°51.502 -999 3.387714 31.791534 1.193347
2008-02-11 10:08:40 51°13.483 2°51.5 -999 3.391339 31.829276 1.228171
2008-02-11 10:08:45 51°13.483 2°51.498 -999 3.390096 31.816335 1.193347
2008-02-11 10:08:50 51°13.482 2°51.497 -999 3.390096 31.816335 1.193347
2008-02-11 10:08:55 51°13.482 2°51.495 -999 3.392168 31.837904 1.228171
2008-02-11 10:09:00 51°13.481 2°51.493 -999 3.388232 31.797815 1.228171
2008-02-11 10:09:05 51°13.48 2°51.491 -999 3.389785 31.81488 1.228171
2008-02-11 10:09:11 51°13.48 2°51.489 -999 3.387299 31.789 1.262995
2008-02-11 10:09:15 51°13.479 2°51.488 -999 3.389267 31.810378 1.297819
2008-02-11 10:09:20 51°13.479 2°51.486 -999 3.389267 31.810378 1.297819
2008-02-11 10:09:25 51°13.478 2°51.484 -999 3.392375 31.841843 1.262995
2008-02-11 10:09:30 51°13.477 2°51.482 -999 3.392789 31.847048 1.262995
2008-02-11 10:09:35 51°13.477 2°51.48 -999 3.391546 31.834105 1.297819
2008-02-11 10:09:40 51°13.476 2°51.479 -999 3.388853 31.806065 1.297819
2008-02-11 10:09:45 51°13.475 2°51.477 -999 3.385539 31.771558 1.297819
2008-02-11 10:09:50 51°13.475 2°51.475 -999 3.385539 31.771558 1.297819
2008-02-11 10:09:55 51°13.474 2°51.473 -999 3.383571 31.751961 1.262995
2008-02-11 10:10:00 51°13.473 2°51.472 -999 3.391753 31.837153 1.332643
2008-02-11 10:10:05 51°13.473 2°51.471 -999 3.390096 31.819896 1.297819
2008-02-11 10:10:10 51°13.473 2°51.471 -999 3.391753 31.837153 1.332643
2008-02-11 10:10:15 51°13.473 2°51.471 -999 3.384917 31.765089 1.297819
2008-02-11 10:10:20 51°13.473 2°51.472 -999 3.384917 31.765089 1.297819
2008-02-11 10:10:25 51°13.473 2°51.473 -999 3.3902 31.820975 1.262995
2008-02-11 10:10:30 51°13.475 2°51.476 -999 3.390303 31.822943 1.332643
2008-02-11 10:10:35 51°13.476 2°51.478 -999 3.387196 31.791479 1.367467
2008-02-11 10:10:40 51°13.478 2°51.482 -999 3.391961 31.841092 1.367467
2008-02-11 10:10:45 51°13.48 2°51.487 -999 3.388542 31.804609 1.332643
2008-02-11 10:10:50 51°13.483 2°51.494 -999 3.388542 31.804609 1.332643
2008-02-11 10:10:55 51°13.486 2°51.502 -999 3.391857 31.840013 1.297819
2008-02-11 10:11:00 51°13.49 2°51.511 -999 3.388957 31.809813 1.332643
2008-02-11 10:11:05 51°13.494 2°51.522 -999 3.39165 31.836965 1.332643
2008-02-11 10:11:10 51°13.498 2°51.534 -999 3.386782 31.787166 1.437116
2008-02-11 10:11:15 51°13.502 2°51.547 -999 3.392064 31.840389 1.47194
2008-02-11 10:11:20 51°13.507 2°51.561 -999 3.392064 31.840389 1.47194
2008-02-11 10:11:25 51°13.512 2°51.576 -999 3.395482 31.875985 1.332643
2008-02-11 10:11:30 51°13.518 2°51.593 -999 3.389371 31.811457 1.297819
2008-02-11 10:11:35 51°13.523 2°51.61 -999 3.392996 31.848314 1.367467
2008-02-11 10:11:40 51°13.53 2°51.627 -999 3.392168 31.838795 1.437116
2008-02-11 10:11:45 51°13.536 2°51.645 -999 3.393514 31.852816 1.506764
2008-02-11 10:11:50 51°13.543 2°51.664 -999 3.393514 31.852816 1.506764
2008-02-11 10:11:55 51°13.55 2°51.683 -999 3.392789 31.845266 1.611236
2008-02-11 10:12:00 51°13.557 2°51.702 -999 3.394964 31.867917 1.680884
2008-02-11 10:12:05 51°13.564 2°51.722 -999 3.392271 31.840764 1.680884
2008-02-11 10:12:10 51°13.571 2°51.742 -999 3.396518 31.885881 1.680884
2008-02-11 10:12:15 51°13.578 2°51.762 -999 3.388853 31.805175 1.715708
2008-02-11 10:12:20 51°13.586 2°51.783 -999 3.388853 31.805175 1.715708
2008-02-11 10:12:25 51°13.593 2°51.803 -999 3.39165 31.835184 1.785356
2008-02-11 10:12:30 51°13.601 2°51.824 -999 3.393307 31.852441 1.785356
2008-02-11 10:12:35 51°13.608 2°51.845 -999 3.391443 31.833026 1.889828
2008-02-11 10:12:40 51°13.616 2°51.866 -999 3.394032 31.858209 1.889828
2008-02-11 10:12:45 51°13.624 2°51.887 -999 3.3931 31.84672 1.924652
2008-02-11 10:12:50 51°13.632 2°51.907 -999 3.3931 31.84672 1.924652
2008-02-11 10:12:55 51°13.64 2°51.928 -999 3.39165 31.831621 1.82018
2008-02-11 10:13:00 51°13.648 2°51.948 -999 3.396 31.876028 1.924652
2008-02-11 10:13:05 51°13.656 2°51.969 -999 3.394654 31.860224 1.924652
2008-02-11 10:13:10 51°13.664 2°51.989 -999 3.395275 31.866695 1.889828
2008-02-11 10:13:15 51°13.672 2°52.01 -999 3.38875 31.798759 1.889828
2008-02-11 10:13:20 51°13.68 2°52.031 -999 3.38875 31.798759 1.889828
2008-02-11 10:13:25 51°13.687 2°52.052 -999 3.396104 31.875323 1.924652
2008-02-11 10:13:30 51°13.695 2°52.074 -999 3.397036 31.885031 1.889828
2008-02-11 10:13:35 51°13.702 2°52.095 -999 3.399004 31.904633 1.855004
2008-02-11 10:13:40 51°13.709 2°52.117 -999 3.401386 31.929444 1.855004
2008-02-11 10:13:45 51°13.717 2°52.138 -999 3.398279 31.89619 1.889828
2008-02-11 10:13:50 51°13.724 2°52.159 -999 3.398279 31.89619 1.889828
2008-02-11 10:13:55 51°13.731 2°52.181 -999 3.394964 31.860786 1.889828
2008-02-11 10:14:00 51°13.739 2°52.202 -999 3.395793 31.868522 1.959476
2008-02-11 10:14:05 51°13.747 2°52.223 -999 3.400661 31.919214 1.924652
2008-02-11 10:14:10 51°13.755 2°52.244 -999 3.398072 31.891357 1.959476
2008-02-11 10:14:15 51°13.763 2°52.264 -999 3.392064 31.829702 1.9943
2008-02-11 10:14:20 51°13.771 2°52.285 -999 3.392064 31.829702 1.9943
2008-02-11 10:14:25 51°13.78 2°52.306 -999 3.395482 31.867069 1.924652
2008-02-11 10:14:30 51°13.787 2°52.327 -999 3.397968 31.893846 1.855004
2008-02-11 10:14:35 51°13.795 2°52.348 -999 3.397554 31.891316 1.82018
2008-02-11 10:14:40 51°13.803 2°52.369 -999 3.394446 31.861632 1.785356
2008-02-11 10:14:45 51°13.811 2°52.39 -999 3.389267 31.811268 1.785356
2008-02-11 10:14:50 51°13.818 2°52.412 -999 3.389267 31.811268 1.785356
2008-02-11 10:14:55 51°13.826 2°52.433 -999 3.392375 31.845406 1.82018
2008-02-11 10:15:00 51°13.833 2°52.455 -999 3.392478 31.847376 1.82018
2008-02-11 10:15:05 51°13.84 2°52.476 -999 3.3873 31.794337 1.82018
2008-02-11 10:15:10 51°13.848 2°52.498 -999 3.392996 31.854552 1.889828
2008-02-11 10:15:15 51°13.855 2°52.519 -999 3.392168 31.845031 1.924652
2008-02-11 10:15:20 51°13.863 2°52.541 -999 3.392168 31.845031 1.924652
2008-02-11 10:15:25 51°13.87 2°52.563 -999 3.395379 31.878474 1.924652
2008-02-11 10:15:30 51°13.878 2°52.584 -999 3.395068 31.874346 1.855004
2008-02-11 10:15:35 51°13.885 2°52.606 -999 3.394239 31.865715 1.855004
2008-02-11 10:15:40 51°13.893 2°52.627 -999 3.392893 31.8508 1.82018
2008-02-11 10:15:45 51°13.901 2°52.649 -999 3.396725 31.890716 1.855004
2008-02-11 10:15:50 51°13.908 2°52.67 -999 3.396725 31.890716 1.855004
2008-02-11 10:15:55 51°13.916 2°52.692 -999 3.389785 31.819331 1.82018
2008-02-11 10:16:00 51°13.924 2°52.713 -999 3.393825 31.862291 1.855004
2008-02-11 10:16:05 51°13.931 2°52.735 -999 3.392996 31.853661 2.029124
2008-02-11 10:16:10 51°13.938 2°52.756 -999 3.389268 31.816609 1.924652
2008-02-11 10:16:15 51°13.946 2°52.778 -999 3.394861 31.874864 1.924652
2008-02-11 10:16:20 51°13.953 2°52.8 -999 3.394861 31.874864 1.924652
2008-02-11 10:16:25 51°13.961 2°52.821 -999 3.388543 31.809059 1.9943
2008-02-11 10:16:30 51°13.968 2°52.843 -999 3.391961 31.844656 1.855004
2008-02-11 10:16:35 51°13.976 2°52.864 -999 3.39455 31.871627 1.855004
2008-02-11 10:16:40 51°13.983 2°52.885 -999 3.393411 31.859759 1.889828
2008-02-11 10:16:45 51°13.992 2°52.906 -999 3.395689 31.883495 1.855004
2008-02-11 10:16:50 51°14 2°52.927 -999 3.395689 31.883495 1.855004
2008-02-11 10:16:55 51°14.01 2°52.946 -999 3.394654 31.872706 1.889828
2008-02-11 10:17:00 51°14.018 2°52.967 -999 3.394861 31.874864 1.855004
2008-02-11 10:17:05 51°14.028 2°52.986 -999 3.391857 31.844468 1.785356
2008-02-11 10:17:10 51°14.037 2°53.006 -999 3.392686 31.85399 1.750532
2008-02-11 10:17:15 51°14.047 2°53.025 -999 3.3931 31.859197 1.750532
2008-02-11 10:17:20 51°14.056 2°53.045 -999 3.3931 31.859197 1.750532
2008-02-11 10:17:25 51°14.066 2°53.064 -999 3.393411 31.865109 1.750532
2008-02-11 10:17:30 51°14.075 2°53.084 -999 3.389682 31.830722 1.785356
2008-02-11 10:17:35 51°14.084 2°53.104 -999 3.387818 31.815754 1.785356
2008-02-11 10:17:40 51°14.094 2°53.124 -999 3.387507 31.815189 1.82018
2008-02-11 10:17:45 51°14.103 2°53.144 -999 3.385435 31.796278 1.785356
2008-02-11 10:17:50 51°14.113 2°53.164 -999 3.385435 31.796278 1.785356
2008-02-11 10:17:55 51°14.122 2°53.184 -999 3.38295 31.770381 1.959476
2008-02-11 10:18:00 51°14.132 2°53.204 -999 3.382742 31.768223 1.959476
2008-02-11 10:18:05 51°14.141 2°53.223 -999 3.38471 31.787834 1.959476
2008-02-11 10:18:10 51°14.15 2°53.243 -999 3.387921 31.819505 1.959476
2008-02-11 10:18:15 51°14.16 2°53.263 -999 3.385746 31.795954 2.029124
2008-02-11 10:18:20 51°14.169 2°53.284 -999 3.385746 31.795954 2.029124
2008-02-11 10:18:25 51°14.178 2°53.304 -999 3.391961 31.859812 1.9943
2008-02-11 10:18:30 51°14.187 2°53.325 -999 3.387921 31.817724 1.9943
2008-02-11 10:18:35 51°14.196 2°53.346 -999 3.387093 31.809091 1.9943
2008-02-11 10:18:40 51°14.204 2°53.367 -999 3.392582 31.865396 1.9943
2008-02-11 10:18:45 51°14.213 2°53.388 -999 3.394654 31.886983 2.029124
2008-02-11 10:18:50 51°14.222 2°53.409 -999 3.394654 31.886983 2.029124
2008-02-11 10:18:55 51°14.231 2°53.429 -999 3.397658 31.919182 2.133597
2008-02-11 10:19:00 51°14.239 2°53.45 -999 3.395586 31.897591 2.168421
2008-02-11 10:19:05 51°14.248 2°53.471 -999 3.396 31.901909 2.168421
2008-02-11 10:19:10 51°14.257 2°53.492 -999 3.392893 31.870418 2.203245
2008-02-11 10:19:15 51°14.266 2°53.512 -999 3.392997 31.87239 2.203245
2008-02-11 10:19:20 51°14.275 2°53.533 -999 3.392997 31.87239 2.203245
2008-02-11 10:19:25 51°14.284 2°53.554 -999 3.396 31.904589 2.238069
2008-02-11 10:19:30 51°14.293 2°53.575 -999 3.397658 31.923651 2.238069
2008-02-11 10:19:35 51°14.302 2°53.595 -999 3.394654 31.89234 2.272893
2008-02-11 10:19:40 51°14.311 2°53.616 -999 3.395897 31.905296 2.272893
2008-02-11 10:19:45 51°14.321 2°53.635 -999 3.395275 31.900604 2.307717
2008-02-11 10:19:50 51°14.332 2°53.653 -999 3.395275 31.900604 2.307717
2008-02-11 10:19:55 51°14.343 2°53.671 -999 3.390822 31.855075 2.272893
2008-02-11 10:20:00 51°14.354 2°53.69 -999 3.391857 31.86587 2.133597
2008-02-11 10:20:05 51°14.364 2°53.708 -999 3.396726 31.917508 1.9943
2008-02-11 10:20:10 51°14.375 2°53.727 -999 3.392582 31.876105 1.959476
2008-02-11 10:20:15 51°14.386 2°53.743 -999 3.392479 31.876811 1.924652
2008-02-11 10:20:20 51°14.398 2°53.761 -999 3.392479 31.876811 1.924652
2008-02-11 10:20:25 51°14.41 2°53.777 -999 3.38585 31.80861 1.715708
2008-02-11 10:20:30 51°14.422 2°53.793 -999 3.386782 31.817434 1.715708
2008-02-11 10:20:35 51°14.436 2°53.807 -999 3.383882 31.787212 1.855004
2008-02-11 10:20:40 51°14.449 2°53.82 -999 3.392686 31.878077 1.889828
2008-02-11 10:20:45 51°14.463 2°53.832 -999 3.393515 31.885822 1.855004
2008-02-11 10:20:50 51°14.477 2°53.843 -999 3.393515 31.885822 1.855004
2008-02-11 10:20:55 51°14.492 2°53.855 -999 3.397761 31.930095 1.889828
2008-02-11 10:21:00 51°14.506 2°53.866 -999 3.395483 31.906338 1.889828
2008-02-11 10:21:05 51°14.521 2°53.876 -999 3.39424 31.892487 1.855004
2008-02-11 10:21:10 51°14.535 2°53.886 -999 3.3931 31.880611 1.785356
2008-02-11 10:21:15 51°14.551 2°53.893 -999 3.387714 31.824475 1.750532
2008-02-11 10:21:20 51°14.567 2°53.9 -999 3.387714 31.824475 1.750532
2008-02-11 10:21:25 51°14.582 2°53.907 -999 3.393929 31.888355 1.715708
2008-02-11 10:21:30 51°14.598 2°53.913 -999 3.394965 31.898259 1.785356
2008-02-11 10:21:35 51°14.614 2°53.919 -999 3.395483 31.902764 1.750532
2008-02-11 10:21:40 51°14.63 2°53.925 -999 3.400247 31.951541 1.82018
2008-02-11 10:21:45 51°14.646 2°53.931 -999 3.392479 31.868778 1.680884
2008-02-11 10:21:50 51°14.662 2°53.937 -999 3.392479 31.868778 1.680884
2008-02-11 10:21:55 51°14.678 2°53.944 -999 3.401697 31.963079 1.64606
2008-02-11 10:22:00 51°14.694 2°53.95 -999 3.399936 31.942934 1.750532
2008-02-11 10:22:05 51°14.71 2°53.956 -999 3.399419 31.934853 1.785356
2008-02-11 10:22:10 51°14.727 2°53.961 -999 3.401283 31.952497 1.855004
2008-02-11 10:22:15 51°14.743 2°53.966 -999 3.400558 31.943152 1.889828
2008-02-11 10:22:20 51°14.759 2°53.971 -999 3.400558 31.943152 1.889828
2008-02-11 10:22:25 51°14.775 2°53.976 -999 3.400144 31.936152 1.959476
2008-02-11 10:22:30 51°14.791 2°53.981 -999 3.404494 31.979702 2.029124
2008-02-11 10:22:35 51°14.806 2°53.987 -999 3.403562 31.969091 2.063949
2008-02-11 10:22:40 51°14.822 2°53.991 -999 3.40149 31.945714 2.133597
2008-02-11 10:22:45 51°14.838 2°53.997 -999 3.407394 32.005453 2.203245
2008-02-11 10:22:50 51°14.853 2°54.003 -999 3.407394 32.005453 2.203245
2008-02-11 10:22:55 51°14.869 2°54.009 -999 3.401594 31.944111 2.203245
2008-02-11 10:23:00 51°14.885 2°54.016 -999 3.403458 31.960855 2.307717
2008-02-11 10:23:05 51°14.9 2°54.022 -999 3.409777 32.025803 2.377365
2008-02-11 10:23:10 51°14.916 2°54.029 -999 3.413609 32.063058 2.412189
2008-02-11 10:23:15 51°14.932 2°54.035 -999 3.408326 32.007107 2.412189
2008-02-11 10:23:20 51°14.948 2°54.038 -999 3.408326 32.007107 2.412189
2008-02-11 10:23:25 51°14.964 2°54.042 -999 3.417545 32.101393 2.447013
2008-02-11 10:23:30 51°14.98 2°54.044 -999 3.417027 32.095097 2.481837
2008-02-11 10:23:35 51°14.996 2°54.047 -999 3.419928 32.12533 2.551485
2008-02-11 10:23:40 51°15.012 2°54.049 -999 3.41827 32.108053 2.516661
2008-02-11 10:23:45 51°15.028 2°54.051 -999 3.420756 32.134868 2.481837
2008-02-11 10:23:50 51°15.044 2°54.053 -999 3.420756 32.134868 2.481837
2008-02-11 10:23:55 51°15.06 2°54.055 -999 3.418167 32.107872 2.516661
2008-02-11 10:24:00 51°15.075 2°54.057 -999 3.419721 32.125867 2.551485
2008-02-11 10:24:05 51°15.092 2°54.059 -999 3.421585 32.146206 2.516661
2008-02-11 10:24:10 51°15.108 2°54.061 -999 3.421792 32.150165 2.551485
2008-02-11 10:24:15 51°15.123 2°54.064 -999 3.419099 32.122084 2.586309
2008-02-11 10:24:20 51°15.139 2°54.066 -999 3.419099 32.122084 2.586309
2008-02-11 10:24:25 51°15.156 2°54.068 -999 3.421792 32.153764 2.586309
2008-02-11 10:24:30 51°15.172 2°54.071 -999 3.422 32.156824 2.621133
2008-02-11 10:24:35 51°15.188 2°54.073 -999 3.417028 32.107672 2.655957
2008-02-11 10:24:40 51°15.203 2°54.075 -999 3.420446 32.146918 2.655957
2008-02-11 10:24:45 51°15.219 2°54.077 -999 3.42086 32.15304 2.655957
2008-02-11 10:24:50 51°15.235 2°54.08 -999 3.42086 32.15304 2.655957
2008-02-11 10:24:55 51°15.252 2°54.082 -999 3.421482 32.164025 2.725606
2008-02-11 10:25:00 51°15.268 2°54.084 -999 3.421275 32.164565 2.725606
2008-02-11 10:25:05 51°15.284 2°54.087 -999 3.418582 32.139167 2.795254
2008-02-11 10:25:10 51°15.3 2°54.09 -999 3.418582 32.142767 2.795254
2008-02-11 10:25:15 51°15.316 2°54.093 -999 3.418996 32.149791 2.864902
2008-02-11 10:25:20 51°15.332 2°54.098 -999 3.418996 32.149791 2.864902
2008-02-11 10:25:25 51°15.348 2°54.101 -999 3.419307 32.156637 2.899726
2008-02-11 10:25:30 51°15.363 2°54.107 -999 3.41651 32.131049 2.969374
2008-02-11 10:25:35 51°15.379 2°54.112 -999 3.417857 32.148706 3.10867
2008-02-11 10:25:40 51°15.394 2°54.118 -999 3.417546 32.149966 3.178318
2008-02-11 10:25:45 51°15.41 2°54.125 -999 3.416199 32.140411 3.247966
2008-02-11 10:25:50 51°15.425 2°54.132 -999 3.416199 32.140411 3.247966
2008-02-11 10:25:55 51°15.44 2°54.14 -999 3.415889 32.144374 3.28279
2008-02-11 10:26:00 51°15.455 2°54.149 -999 3.415578 32.148338 3.317614
2008-02-11 10:26:05 51°15.471 2°54.157 -999 3.413506 32.132106 3.387263
2008-02-11 10:26:10 51°15.486 2°54.166 -999 3.412989 32.131201 3.387263
2008-02-11 10:26:15 51°15.501 2°54.174 -999 3.411124 32.11893 3.491735
2008-02-11 10:26:20 51°15.516 2°54.183 -999 3.411124 32.11893 3.491735
2008-02-11 10:26:25 51°15.531 2°54.192 -999 3.413403 32.149957 3.561383
2008-02-11 10:26:30 51°15.545 2°54.201 -999 3.411539 32.136782 3.561383
2008-02-11 10:26:35 51°15.56 2°54.21 -999 3.411953 32.148331 3.526559
2008-02-11 10:26:40 51°15.575 2°54.22 -999 3.411124 32.146886 3.456911
2008-02-11 10:26:45 51°15.59 2°54.229 -999 3.410917 32.151039 3.247966
2008-02-11 10:26:50 51°15.605 2°54.238 -999 3.410917 32.151039 3.247966
2008-02-11 10:26:55 51°15.62 2°54.247 -999 3.411539 32.16296 3.073846
2008-02-11 10:27:00 51°15.635 2°54.256 -999 3.412678 32.178496 2.93455
2008-02-11 10:27:05 51°15.649 2°54.265 -999 3.412264 32.177776 2.795254
2008-02-11 10:27:10 51°15.664 2°54.274 -999 3.411746 32.175069 2.76043
2008-02-11 10:27:15 51°15.679 2°54.283 -999 3.411643 32.176697 2.725606
2008-02-11 10:27:20 51°15.694 2°54.292 -999 3.411643 32.176697 2.725606
2008-02-11 10:27:25 51°15.709 2°54.301 -999 3.414025 32.204348 2.586309
2008-02-11 10:27:30 51°15.724 2°54.311 -999 3.414543 32.210675 2.551485
2008-02-11 10:27:35 51°15.738 2°54.32 -999 3.415061 32.217908 2.481837
2008-02-11 10:27:40 51°15.753 2°54.329 -999 3.415165 32.219898 2.412189
2008-02-11 10:27:45 51°15.768 2°54.338 -999 3.41475 32.217371 2.377365
2008-02-11 10:27:50 51°15.782 2°54.348 -999 3.41475 32.217371 2.377365
2008-02-11 10:27:55 51°15.797 2°54.358 -999 3.416201 32.234367 2.412189
2008-02-11 10:28:00 51°15.812 2°54.368 -999 3.412989 32.202555 2.342541
2008-02-11 10:28:05 51°15.826 2°54.379 -999 3.416719 32.243416 2.342541
2008-02-11 10:28:10 51°15.84 2°54.39 -999 3.414854 32.224796 2.307717
2008-02-11 10:28:15 51°15.855 2°54.4 -999 3.415786 32.235465 2.238069
2008-02-11 10:28:20 51°15.869 2°54.411 -999 3.415786 32.235465 2.238069
2008-02-11 10:28:25 51°15.883 2°54.421 -999 3.417547 32.255722 2.272893
2008-02-11 10:28:30 51°15.898 2°54.431 -999 3.414854 32.227514 2.203245
2008-02-11 10:28:35 51°15.912 2°54.442 -999 3.414336 32.223902 2.203245
2008-02-11 10:28:40 51°15.927 2°54.452 -999 3.415579 32.236921 2.203245
2008-02-11 10:28:45 51°15.942 2°54.463 -999 3.415683 32.238913 2.168421
2008-02-11 10:28:50 51°15.956 2°54.473 -999 3.415683 32.238913 2.168421
2008-02-11 10:28:55 51°15.97 2°54.484 -999 3.416615 32.249585 2.168421
2008-02-11 10:29:00 51°15.984 2°54.496 -999 3.417029 32.253925 2.203245
2008-02-11 10:29:05 51°15.998 2°54.51 -999 3.419723 32.283047 2.203245
2008-02-11 10:29:10 51°16.011 2°54.523 -999 3.416408 32.249228 2.168421
2008-02-11 10:29:15 51°16.024 2°54.539 -999 3.419826 32.28504 2.203245
2008-02-11 10:29:20 51°16.036 2°54.554 -999 3.419826 32.28504 2.203245
2008-02-11 10:29:25 51°16.048 2°54.572 -999 3.421484 32.302406 2.238069
2008-02-11 10:29:30 51°16.06 2°54.588 -999 3.421069 32.297156 2.203245
2008-02-11 10:29:35 51°16.071 2°54.606 -999 3.41848 32.270932 2.238069
2008-02-11 10:29:40 51°16.082 2°54.624 -999 3.422105 32.30801 2.272893
2008-02-11 10:29:45 51°16.092 2°54.642 -999 3.423555 32.322297 2.272893
2008-02-11 10:29:50 51°16.102 2°54.662 -999 3.423555 32.322297 2.272893
2008-02-11 10:29:55 51°16.113 2°54.681 -999 3.423866 32.325553 2.272893
2008-02-11 10:30:00 51°16.123 2°54.701 -999 3.423452 32.321212 2.238069
2008-02-11 10:30:05 51°16.133 2°54.72 -999 3.426145 32.348525 2.238069
2008-02-11 10:30:10 51°16.143 2°54.74 -999 3.426041 32.347439 2.272893
2008-02-11 10:30:15 51°16.153 2°54.759 -999 3.425316 32.34075 2.272893
2008-02-11 10:30:20 51°16.162 2°54.779 -999 3.425316 32.34075 2.272893
2008-02-11 10:30:25 51°16.172 2°54.799 -999 3.42687 32.358854 2.272893
2008-02-11 10:30:30 51°16.182 2°54.818 -999 3.424902 32.339136 2.238069
2008-02-11 10:30:35 51°16.192 2°54.838 -999 3.427595 32.368274 2.272893
2008-02-11 10:30:40 51°16.202 2°54.857 -999 3.428424 32.377871 2.272893
2008-02-11 10:30:45 51°16.212 2°54.876 -999 3.426663 32.360323 2.307717
2008-02-11 10:30:50 51°16.223 2°54.895 -999 3.426663 32.360323 2.307717
2008-02-11 10:30:55 51°16.233 2°54.914 -999 3.428631 32.382775 2.307717
2008-02-11 10:31:00 51°16.244 2°54.933 -999 3.427595 32.372827 2.307717
2008-02-11 10:31:05 51°16.254 2°54.951 -999 3.429149 32.390938 2.307717
2008-02-11 10:31:10 51°16.265 2°54.97 -999 3.428113 32.3819 2.272893
2008-02-11 10:31:15 51°16.274 2°54.988 -999 3.426974 32.370864 2.272893
2008-02-11 10:31:20 51°16.284 2°55.005 -999 3.426974 32.370864 2.272893
2008-02-11 10:31:25 51°16.292 2°55.021 -999 3.428735 32.390239 2.168421
2008-02-11 10:31:30 51°16.299 2°55.035 -999 3.424902 32.350964 2.168421
2008-02-11 10:31:35 51°16.306 2°55.049 -999 3.42687 32.37251 2.133597
2008-02-11 10:31:40 51°16.312 2°55.062 -999 3.427803 32.382285 2.098773
2008-02-11 10:31:45 51°16.317 2°55.074 -999 3.427699 32.38211 2.203245
2008-02-11 10:31:50 51°16.322 2°55.085 -999 3.427699 32.38211 2.203245
2008-02-11 10:31:55 51°16.326 2°55.095 -999 3.426974 32.375418 2.168421
2008-02-11 10:32:00 51°16.33 2°55.105 -999 3.428528 32.393534 2.133597
2008-02-11 10:32:05 51°16.333 2°55.115 -999 3.427388 32.382496 2.133597
2008-02-11 10:32:10 51°16.335 2°55.123 -999 3.428631 32.396444 2.168421
2008-02-11 10:32:15 51°16.338 2°55.131 -999 3.428942 32.401527 2.203245
2008-02-11 10:32:20 51°16.34 2°55.137 -999 3.428942 32.401527 2.203245
2008-02-11 10:32:25 51°16.342 2°55.142 -999 3.425524 32.367497 2.168421
2008-02-11 10:32:30 51°16.344 2°55.146 -999 3.427181 32.386703 2.063949
2008-02-11 10:32:35 51°16.346 2°55.149 -999 3.42687 32.382532 1.9943
2008-02-11 10:32:40 51°16.348 2°55.151 -999 3.428424 32.397006 1.959476
2008-02-11 10:32:45 51°16.35 2°55.153 -999 3.427492 32.388139 2.029124
2008-02-11 10:32:50 51°16.353 2°55.155 -999 3.427492 32.388139 2.029124
2008-02-11 10:32:55 51°16.355 2°55.156 -999 3.42687 32.382532 2.063949
2008-02-11 10:33:00 51°16.356 2°55.157 -999 3.427492 32.390874 1.9943
2008-02-11 10:33:05 51°16.358 2°55.158 -999 3.428424 32.399742 1.889828
2008-02-11 10:33:10 51°16.36 2°55.159 -999 3.426974 32.382707 1.855004
2008-02-11 10:33:15 51°16.362 2°55.16 -999 3.427595 32.389226 1.924652
2008-02-11 10:33:20 51°16.364 2°55.16 -999 3.427595 32.389226 1.924652
2008-02-11 10:33:25 51°16.365 2°55.16 -999 3.425834 32.370756 1.855004
2008-02-11 10:33:30 51°16.367 2°55.161 -999 3.427803 32.390487 1.785356
2008-02-11 10:33:35 51°16.368 2°55.161 -999 3.426352 32.370722 1.750532
2008-02-11 10:33:41 51°16.37 2°55.161 -999 3.428528 32.392623 1.785356
2008-02-11 10:33:45 51°16.371 2°55.161 -999 3.425109 32.356778 1.611236
2008-02-11 10:33:50 51°16.372 2°55.161 -999 3.425109 32.356778 1.611236
2008-02-11 10:33:55 51°16.374 2°55.161 -999 3.428113 32.388278 1.47194
2008-02-11 10:34:01 51°16.375 2°55.161 -999 3.427803 32.384108 1.437116
2008-02-11 10:34:05 51°16.376 2°55.161 -999 3.42801 32.38628 1.437116
2008-02-11 10:34:10 51°16.377 2°55.161 -999 3.427699 32.383021 1.402292
2008-02-11 10:34:15 51°16.378 2°55.161 -999 3.429253 32.398404 1.367467
2008-02-11 10:34:21 51°16.379 2°55.16 -999 3.429253 32.398404 1.367467
2008-02-11 10:34:25 51°16.38 2°55.16 -999 3.424281 32.347178 1.297819
2008-02-11 10:34:30 51°16.381 2°55.16 -999 3.42801 32.385369 1.367467
2008-02-11 10:34:35 51°16.382 2°55.16 -999 3.426663 32.370338 1.47194
2008-02-11 10:34:41 51°16.383 2°55.16 -999 3.425834 32.362559 1.541588
2008-02-11 10:34:45 51°16.384 2°55.159 -999 3.427077 32.376504 1.541588
2008-02-11 10:34:50 51°16.384 2°55.159 -999 3.427077 32.376504 1.541588
2008-02-11 10:34:55 51°16.385 2°55.159 -999 3.426456 32.369987 1.64606
2008-02-11 10:35:01 51°16.386 2°55.158 -999 3.426663 32.372159 1.715708
2008-02-11 10:35:05 51°16.387 2°55.158 -999 3.424591 32.352257 1.750532
2008-02-11 10:35:10 51°16.387 2°55.158 -999 3.427906 32.387016 1.715708
2008-02-11 10:35:15 51°16.388 2°55.158 -999 3.42801 32.388103 1.785356
2008-02-11 10:35:21 51°16.389 2°55.157 -999 3.42801 32.388103 1.785356
2008-02-11 10:35:25 51°16.389 2°55.157 -999 3.423866 32.345564 1.750532
2008-02-11 10:35:30 51°16.389 2°55.157 -999 3.426145 32.369461 1.82018
2008-02-11 10:35:35 51°16.39 2°55.156 -999 3.427803 32.386841 1.889828
2008-02-11 10:35:40 51°16.39 2°55.156 -999 3.427388 32.383407 1.889828
2008-02-11 10:35:45 51°16.391 2°55.156 -999 3.428424 32.394271 1.889828
2008-02-11 10:35:50 51°16.392 2°55.155 -999 3.428424 32.394271 1.889828
2008-02-11 10:35:55 51°16.392 2°55.155 -999 3.429253 32.402963 1.959476
2008-02-11 10:36:01 51°16.392 2°55.155 -999 3.428321 32.394096 1.959476
2008-02-11 10:36:05 51°16.392 2°55.154 -999 3.428838 32.399529 1.959476
2008-02-11 10:36:10 51°16.392 2°55.154 -999 3.423038 32.339606 1.959476
2008-02-11 10:36:15 51°16.392 2°55.153 -999 3.425317 32.363503 1.959476
2008-02-11 10:36:21 51°16.392 2°55.153 -999 3.425317 32.363503 1.959476
2008-02-11 10:36:25 51°16.393 2°55.152 -999 3.426663 32.377625 1.959476
2008-02-11 10:36:30 51°16.393 2°55.152 -999 3.427492 32.385405 1.959476
2008-02-11 10:36:35 51°16.393 2°55.152 -999 3.423452 32.34304 1.924652
2008-02-11 10:36:41 51°16.393 2°55.151 -999 3.427388 32.384319 1.889828
2008-02-11 10:36:45 51°16.393 2°55.151 -999 3.425213 32.359685 1.855004
2008-02-11 10:36:51 51°16.393 2°55.15 -999 3.425213 32.359685 1.855004
2008-02-11 10:36:55 51°16.393 2°55.15 -999 3.428528 32.394446 1.855004
2008-02-11 10:37:01 51°16.393 2°55.149 -999 3.427492 32.382671 1.855004
2008-02-11 10:37:05 51°16.393 2°55.149 -999 3.428424 32.392448 1.82018